Observation data for Wall on 12/08/2018      Previous  Date  Next       Current Mesonet Observations  Soil Data  Daily Summary Page  Observations in Plain Language
KWA1 080600Z 01009KT 03/03 A3025 RMK A01 T00310027  RH  097%=      5-min Rain = 0
KWA1 080601Z 01011KT 03/03 A3025 RMK A01 T00310027  RH  097%=      5-min Rain = 0
KWA1 080602Z 01010KT 03/03 A3025 RMK A01 T00310027  RH  097%=      5-min Rain = 0
KWA1 080603Z 02008KT 03/03 A3025 RMK A01 T00300026  RH  097%=      5-min Rain = 0
KWA1 080604Z 01010KT 03/03 A3025 RMK A01 T00300027  RH  097%=      5-min Rain = 0
KWA1 080605Z 01009KT 03/03 A3025 RMK A01 T00300026  RH  097%=      5-min Rain = 0
KWA1 080606Z 01010KT 03/03 A3025 RMK A01 T00300026  RH  097%=      5-min Rain = 0
KWA1 080607Z 01011KT 03/03 A3025 RMK A01 T00300026  RH  097%=      5-min Rain = 0
KWA1 080608Z 01010KT 03/03 A3025 RMK A01 T00300026  RH  097%=      5-min Rain = 0
KWA1 080609Z 01010KT 03/03 A3025 RMK A01 T00300026  RH  097%=      5-min Rain = 0
KWA1 080610Z 02011KT 03/03 A3025 RMK A01 T00300026  RH  097%=      5-min Rain = 0
KWA1 080611Z 02011KT 03/03 A3024 RMK A01 T00300026  RH  097%=      5-min Rain = 0
KWA1 080612Z 02009KT 03/03 A3024 RMK A01 T00300025  RH  097%=      5-min Rain = 0
KWA1 080613Z 02010KT 03/03 A3024 RMK A01 T00300026  RH  097%=      5-min Rain = 0
KWA1 080614Z 02010KT 03/03 A3024 RMK A01 T00300025  RH  097%=      5-min Rain = 0
KWA1 080615Z 02009KT 03/03 A3024 RMK A01 T00300026  RH  097%=      5-min Rain = 0
KWA1 080616Z 03010KT 03/03 A3024 RMK A01 T00300026  RH  097%=      5-min Rain = 0
KWA1 080617Z 03012KT 03/03 A3024 RMK A01 T00300026  RH  097%=      5-min Rain = 0
KWA1 080618Z 03013KT 03/03 A3024 RMK A01 T00300025  RH  097%=      5-min Rain = 0
KWA1 080619Z 03010KT 03/03 A3023 RMK A01 T00300025  RH  096%=      5-min Rain = 0
KWA1 080620Z 03011KT 03/03 A3023 RMK A01 T00300025  RH  096%=      5-min Rain = 0
KWA1 080621Z 03012KT 03/03 A3023 RMK A01 T00300025  RH  096%=      5-min Rain = 0
KWA1 080622Z 03012KT 03/02 A3023 RMK A01 T00300024  RH  096%=      5-min Rain = 0
KWA1 080623Z 03011KT 03/02 A3023 RMK A01 T00300024  RH  096%=      5-min Rain = 0
KWA1 080624Z 04011KT 03/02 A3023 RMK A01 T00300024  RH  096%=      5-min Rain = 0
KWA1 080625Z 04010KT 03/02 A3023 RMK A01 T00300024  RH  096%=      5-min Rain = 0
KWA1 080626Z 03011KT 03/02 A3023 RMK A01 T00300024  RH  096%=      5-min Rain = 0
KWA1 080627Z 03010KT 03/02 A3023 RMK A01 T00300024  RH  096%=      5-min Rain = 0
KWA1 080628Z 04011KT 03/02 A3023 RMK A01 T00300024  RH  096%=      5-min Rain = 0
KWA1 080629Z 03010KT 03/02 A3023 RMK A01 T00300024  RH  096%=      5-min Rain = 0
KWA1 080630Z 03009KT 03/02 A3023 RMK A01 T00300024  RH  096%=      5-min Rain = 0
KWA1 080631Z 03010KT 03/03 A3023 RMK A01 T00300025  RH  096%=      5-min Rain = 0
KWA1 080632Z 04011KT 03/03 A3023 RMK A01 T00310025  RH  096%=      5-min Rain = 0
KWA1 080633Z 03010KT 03/03 A3023 RMK A01 T00300025  RH  096%=      5-min Rain = 0
KWA1 080634Z 03010KT 03/03 A3023 RMK A01 T00300025  RH  096%=      5-min Rain = 0
KWA1 080635Z 02010KT 03/03 A3023 RMK A01 T00300025  RH  097%=      5-min Rain = 0
KWA1 080636Z 03010KT 03/03 A3022 RMK A01 T00300025  RH  097%=      5-min Rain = 0
KWA1 080637Z 02009KT 03/03 A3022 RMK A01 T00300025  RH  097%=      5-min Rain = 0
KWA1 080638Z 03009KT 03/03 A3022 RMK A01 T00300026  RH  097%=      5-min Rain = 0
KWA1 080639Z 02009KT 03/03 A3022 RMK A01 T00300026  RH  097%=      5-min Rain = 0
KWA1 080640Z 03010KT 03/03 A3022 RMK A01 T00300026  RH  097%=      5-min Rain = 0
KWA1 080641Z 03009KT 03/03 A3022 RMK A01 T00300026  RH  097%=      5-min Rain = 0
KWA1 080642Z 02008KT 03/03 A3022 RMK A01 T00300026  RH  097%=      5-min Rain = 0
KWA1 080643Z 03010KT 03/03 A3022 RMK A01 T00300026  RH  097%=      5-min Rain = 0
KWA1 080644Z 02009KT 03/03 A3022 RMK A01 T00300026  RH  097%=      5-min Rain = 0
KWA1 080645Z 02009KT 03/03 A3022 RMK A01 T00300026  RH  097%=      5-min Rain = 0
KWA1 080646Z 02010KT 03/03 A3022 RMK A01 T00300026  RH  097%=      5-min Rain = 0
KWA1 080647Z 02011KT 03/03 A3022 RMK A01 T00300026  RH  097%=      5-min Rain = 0
KWA1 080648Z 03012KT 03/03 A3022 RMK A01 T00300026  RH  097%=      5-min Rain = 0
KWA1 080649Z 02012KT 03/03 A3021 RMK A01 T00300025  RH  097%=      5-min Rain = 0
KWA1 080650Z 02011KT 03/03 A3021 RMK A01 T00300025  RH  097%=      5-min Rain = 0
KWA1 080651Z 03010KT 03/03 A3021 RMK A01 T00300025  RH  097%=      5-min Rain = 0
KWA1 080652Z 03009KT 03/03 A3021 RMK A01 T00300025  RH  097%=      5-min Rain = 0
KWA1 080653Z 03009KT 03/03 A3021 RMK A01 T00300025  RH  097%=      5-min Rain = 0
KWA1 080654Z 03010KT 03/03 A3021 RMK A01 T00300025  RH  097%=      5-min Rain = 0
KWA1 080655Z 03011KT 03/03 A3021 RMK A01 T00300025  RH  097%=      5-min Rain = 0
KWA1 080656Z 03008KT 03/03 A3021 RMK A01 T00300025  RH  097%=      5-min Rain = 0
KWA1 080657Z 02008KT 03/03 A3022 RMK A01 T00300025  RH  097%=      5-min Rain = 0
KWA1 080658Z 02010KT 03/03 A3022 RMK A01 T00300026  RH  097%=      5-min Rain = 0
KWA1 080659Z 02011KT 03/03 A3022 RMK A01 T00300025  RH  097%=      5-min Rain = 0
KWA1 080700Z 02011KT 03/03 A3022 RMK A01 T00300025  RH  097%=      5-min Rain = 0
KWA1 080701Z 02009KT 03/03 A3022 RMK A01 T00300025  RH  096%=      5-min Rain = 0
KWA1 080702Z 02007KT 03/03 A3022 RMK A01 T00300025  RH  096%=      5-min Rain = 0
KWA1 080703Z 02007KT 03/03 A3022 RMK A01 T00300025  RH  097%=      5-min Rain = 0
KWA1 080704Z 01010KT 03/03 A3022 RMK A01 T00300025  RH  097%=      5-min Rain = 0
KWA1 080705Z 02009KT 03/03 A3022 RMK A01 T00300025  RH  097%=      5-min Rain = 0
KWA1 080706Z 02008KT 03/03 A3022 RMK A01 T00300025  RH  097%=      5-min Rain = 0
KWA1 080707Z 02008KT 03/03 A3022 RMK A01 T00300025  RH  097%=      5-min Rain = 0
KWA1 080708Z 01010KT 03/03 A3022 RMK A01 T00300025  RH  097%=      5-min Rain = 0
KWA1 080709Z 02010KT 03/03 A3022 RMK A01 T00300025  RH  097%=      5-min Rain = 0
KWA1 080710Z 02009KT 03/03 A3022 RMK A01 T00300025  RH  097%=      5-min Rain = 0
KWA1 080711Z 03009KT 03/03 A3022 RMK A01 T00300025  RH  097%=      5-min Rain = 0
KWA1 080712Z 02009KT 03/03 A3022 RMK A01 T00300025  RH  097%=      5-min Rain = 0
KWA1 080713Z 02009KT 03/03 A3022 RMK A01 T00300025  RH  097%=      5-min Rain = 0
KWA1 080714Z 02008KT 03/03 A3022 RMK A01 T00300025  RH  097%=      5-min Rain = 0
KWA1 080715Z 03009KT 03/03 A3022 RMK A01 T00300025  RH  097%=      5-min Rain = 0
KWA1 080716Z 02009KT 03/03 A3022 RMK A01 T00300025  RH  097%=      5-min Rain = 0
KWA1 080717Z 02009KT 03/03 A3021 RMK A01 T00300025  RH  097%=      5-min Rain = 0
KWA1 080718Z 02011KT 03/03 A3021 RMK A01 T00300025  RH  097%=      5-min Rain = 0
KWA1 080719Z 02011KT 03/03 A3021 RMK A01 T00300025  RH  097%=      5-min Rain = 0
KWA1 080720Z 02008KT 03/03 A3021 RMK A01 T00300025  RH  097%=      5-min Rain = 0
KWA1 080721Z 02010KT 03/03 A3022 RMK A01 T00300025  RH  096%=      5-min Rain = 0
KWA1 080722Z 02011KT 03/02 A3022 RMK A01 T00300024  RH  096%=      5-min Rain = 0
KWA1 080723Z 02009KT 03/02 A3022 RMK A01 T00300024  RH  096%=      5-min Rain = 0
KWA1 080724Z 01008G13KT 03/03 A3022 RMK A01 T00300025  RH  096%=      5-min Rain = 0
KWA1 080725Z 01010KT 03/03 A3022 RMK A01 T00300025  RH  096%=      5-min Rain = 0
KWA1 080726Z 01010KT 03/02 A3021 RMK A01 T00300024  RH  096%=      5-min Rain = 0
KWA1 080727Z 02009KT 03/02 A3021 RMK A01 T00290024  RH  096%=      5-min Rain = 0
KWA1 080728Z 02011KT 03/02 A3021 RMK A01 T00290024  RH  097%=      5-min Rain = 0
KWA1 080729Z 02010KT 03/02 A3021 RMK A01 T00290024  RH  096%=      5-min Rain = 0
KWA1 080730Z 02010KT 03/02 A3021 RMK A01 T00290023  RH  096%=      5-min Rain = 0
KWA1 080731Z 02011KT 03/02 A3021 RMK A01 T00290023  RH  096%=      5-min Rain = 0
KWA1 080732Z 03011KT 03/02 A3021 RMK A01 T00290023  RH  096%=      5-min Rain = 0
KWA1 080733Z 03011KT 03/02 A3021 RMK A01 T00290023  RH  096%=      5-min Rain = 0
KWA1 080734Z 03010KT 03/02 A3021 RMK A01 T00290023  RH  096%=      5-min Rain = 0
KWA1 080735Z 02012KT 03/02 A3021 RMK A01 T00290023  RH  095%=      5-min Rain = 0
KWA1 080736Z 02010KT 03/02 A3021 RMK A01 T00290023  RH  095%=      5-min Rain = 0
KWA1 080737Z 02009KT 03/02 A3021 RMK A01 T00290023  RH  095%=      5-min Rain = 0
KWA1 080738Z 02011KT 03/02 A3021 RMK A01 T00290023  RH  095%=      5-min Rain = 0
KWA1 080739Z 02010KT 03/02 A3021 RMK A01 T00290023  RH  095%=      5-min Rain = 0
KWA1 080740Z 02009KT 03/02 A3021 RMK A01 T00290023  RH  095%=      5-min Rain = 0
KWA1 080741Z 02012KT 03/02 A3021 RMK A01 T00290023  RH  095%=      5-min Rain = 0
KWA1 080742Z 02008KT 03/02 A3021 RMK A01 T00290023  RH  095%=      5-min Rain = 0
KWA1 080743Z 02009KT 03/02 A3021 RMK A01 T00300023  RH  096%=      5-min Rain = 0
KWA1 080744Z 02008KT 03/02 A3021 RMK A01 T00290023  RH  096%=      5-min Rain = 0
KWA1 080745Z 02008KT 03/02 A3021 RMK A01 T00290023  RH  096%=      5-min Rain = 0
KWA1 080746Z 03010KT 03/02 A3021 RMK A01 T00290023  RH  096%=      5-min Rain = 0
KWA1 080747Z 02009KT 03/02 A3021 RMK A01 T00290023  RH  096%=      5-min Rain = 0
KWA1 080748Z 03010KT 03/02 A3021 RMK A01 T00290023  RH  096%=      5-min Rain = 0
KWA1 080749Z 02011KT 03/02 A3021 RMK A01 T00290023  RH  096%=      5-min Rain = 0
KWA1 080750Z 02008KT 03/02 A3021 RMK A01 T00290023  RH  095%=      5-min Rain = 0
KWA1 080751Z 02008KT 03/02 A3021 RMK A01 T00290023  RH  095%=      5-min Rain = 0
KWA1 080752Z 02010KT 03/02 A3021 RMK A01 T00300023  RH  096%=      5-min Rain = 0
KWA1 080753Z 01009KT 03/02 A3021 RMK A01 T00290023  RH  096%=      5-min Rain = 0
KWA1 080754Z 01009KT 03/02 A3021 RMK A01 T00290023  RH  096%=      5-min Rain = 0
KWA1 080755Z 01009KT 03/02 A3021 RMK A01 T00290023  RH  096%=      5-min Rain = 0
KWA1 080756Z 02008KT 03/02 A3021 RMK A01 T00290023  RH  096%=      5-min Rain = 0
KWA1 080757Z 02009KT 03/02 A3021 RMK A01 T00290023  RH  096%=      5-min Rain = 0
KWA1 080758Z 02009KT 03/02 A3021 RMK A01 T00290023  RH  096%=      5-min Rain = 0
KWA1 080759Z 02009KT 03/02 A3021 RMK A01 T00290023  RH  096%=      5-min Rain = 0
KWA1 080800Z 02008KT 03/02 A3021 RMK A01 T00290023  RH  096%=      5-min Rain = 0
KWA1 080801Z 02008KT 03/02 A3021 RMK A01 T00290023  RH  096%=      5-min Rain = 0
KWA1 080802Z 03007KT 03/02 A3021 RMK A01 T00300024  RH  096%=      5-min Rain = 0
KWA1 080803Z 02008KT 03/02 A3021 RMK A01 T00300024  RH  096%=      5-min Rain = 0
KWA1 080804Z 03008KT 03/02 A3021 RMK A01 T00300024  RH  096%=      5-min Rain = 0
KWA1 080805Z 02009KT 03/02 A3021 RMK A01 T00300024  RH  096%=      5-min Rain = 0
KWA1 080806Z 03008KT 03/02 A3021 RMK A01 T00300023  RH  096%=      5-min Rain = 0
KWA1 080807Z 02010KT 03/02 A3021 RMK A01 T00300023  RH  096%=      5-min Rain = 0
KWA1 080808Z 02008KT 03/02 A3021 RMK A01 T00290022  RH  095%=      5-min Rain = 0
KWA1 080809Z 02007KT 03/02 A3021 RMK A01 T00290023  RH  095%=      5-min Rain = 0
KWA1 080810Z 03008KT 03/02 A3021 RMK A01 T00290023  RH  096%=      5-min Rain = 0
KWA1 080811Z 02008KT 03/02 A3021 RMK A01 T00290023  RH  096%=      5-min Rain = 0
KWA1 080812Z 02011KT 03/02 A3021 RMK A01 T00290023  RH  095%=      5-min Rain = 0
KWA1 080813Z 02011KT 03/02 A3021 RMK A01 T00290022  RH  095%=      5-min Rain = 0
KWA1 080814Z 02012KT 03/02 A3021 RMK A01 T00290021  RH  095%=      5-min Rain = 0
KWA1 080815Z 03011KT 03/02 A3021 RMK A01 T00290021  RH  095%=      5-min Rain = 0
KWA1 080816Z 03010KT 03/02 A3021 RMK A01 T00290021  RH  095%=      5-min Rain = 0
KWA1 080817Z 02009KT 03/02 A3021 RMK A01 T00290022  RH  095%=      5-min Rain = 0
KWA1 080818Z 02007KT 03/02 A3021 RMK A01 T00290022  RH  095%=      5-min Rain = 0
KWA1 080819Z 02007KT 03/02 A3021 RMK A01 T00290023  RH  096%=      5-min Rain = 0
KWA1 080820Z 02009KT 03/02 A3021 RMK A01 T00290023  RH  096%=      5-min Rain = 0
KWA1 080821Z 02010KT 03/02 A3021 RMK A01 T00290022  RH  095%=      5-min Rain = 0
KWA1 080822Z 02010KT 03/02 A3021 RMK A01 T00290022  RH  095%=      5-min Rain = 0
KWA1 080823Z 02010KT 03/02 A3021 RMK A01 T00290022  RH  095%=      5-min Rain = 0
KWA1 080824Z 02011KT 03/02 A302 RMK A01 T00290022  RH  095%=      5-min Rain = 0
KWA1 080825Z 02012KT 03/02 A302 RMK A01 T00290022  RH  095%=      5-min Rain = 0
KWA1 080826Z 02008KT 03/02 A302 RMK A01 T00290022  RH  095%=      5-min Rain = 0
KWA1 080827Z 02008KT 03/02 A302 RMK A01 T00290023  RH  096%=      5-min Rain = 0
KWA1 080828Z 01011KT 03/02 A302 RMK A01 T00290023  RH  096%=      5-min Rain = 0
KWA1 080829Z 01012KT 03/02 A302 RMK A01 T00290022  RH  096%=      5-min Rain = 0
KWA1 080830Z 02012KT 03/02 A302 RMK A01 T00280021  RH  095%=      5-min Rain = 0
KWA1 080831Z 02010KT 03/02 A302 RMK A01 T00280021  RH  095%=      5-min Rain = 0
KWA1 080832Z 02010KT 03/02 A302 RMK A01 T00280021  RH  095%=      5-min Rain = 0
KWA1 080833Z 02012KT 03/02 A302 RMK A01 T00280021  RH  095%=      5-min Rain = 0
KWA1 080834Z 02012KT 03/02 A302 RMK A01 T00280021  RH  095%=      5-min Rain = 0
KWA1 080835Z 02010KT 03/02 A302 RMK A01 T00280021  RH  095%=      5-min Rain = 0
KWA1 080836Z 03010KT 03/02 A302 RMK A01 T00280021  RH  095%=      5-min Rain = 0
KWA1 080837Z 03011KT 03/02 A3021 RMK A01 T00270021  RH  096%=      5-min Rain = 0
KWA1 080838Z 02012KT 03/02 A302 RMK A01 T00280021  RH  096%=      5-min Rain = 0
KWA1 080839Z 03009KT 03/02 A302 RMK A01 T00270021  RH  095%=      5-min Rain = 0
KWA1 080840Z 03009KT 03/02 A302 RMK A01 T00270021  RH  096%=      5-min Rain = 0
KWA1 080841Z 03011KT 03/02 A3021 RMK A01 T00280021  RH  096%=      5-min Rain = 0
KWA1 080842Z 02010KT 03/02 A302 RMK A01 T00280021  RH  096%=      5-min Rain = 0
KWA1 080843Z 02014KT 03/02 A3021 RMK A01 T00280021  RH  096%=      5-min Rain = 0
KWA1 080844Z 02010KT 03/02 A302 RMK A01 T00280021  RH  096%=      5-min Rain = 0
KWA1 080845Z 02010KT 03/02 A302 RMK A01 T00270021  RH  096%=      5-min Rain = 0
KWA1 080846Z 02010KT 03/02 A302 RMK A01 T00270022  RH  096%=      5-min Rain = 0
KWA1 080847Z 02010KT 03/02 A3021 RMK A01 T00280022  RH  096%=      5-min Rain = 0
KWA1 080848Z 02008KT 03/02 A3021 RMK A01 T00270022  RH  096%=      5-min Rain = 0
KWA1 080849Z 02008KT 03/02 A3021 RMK A01 T00280022  RH  096%=      5-min Rain = 0
KWA1 080850Z 01008KT 03/02 A3021 RMK A01 T00280023  RH  096%=      5-min Rain = 0
KWA1 080851Z 01010KT 03/02 A3021 RMK A01 T00280023  RH  097%=      5-min Rain = 0
KWA1 080852Z 01010KT 03/02 A3021 RMK A01 T00280023  RH  097%=      5-min Rain = 0
KWA1 080853Z 02009KT 03/02 A3021 RMK A01 T00280023  RH  097%=      5-min Rain = 0
KWA1 080854Z 01008KT 03/02 A3021 RMK A01 T00280023  RH  097%=      5-min Rain = 0
KWA1 080855Z 01009KT 03/02 A3021 RMK A01 T00280023  RH  097%=      5-min Rain = 0
KWA1 080856Z 01007KT 03/02 A3021 RMK A01 T00280023  RH  097%=      5-min Rain = 0
KWA1 080857Z 01007KT 03/02 A3021 RMK A01 T00270023  RH  097%=      5-min Rain = 0
KWA1 080858Z 02007KT 03/02 A302 RMK A01 T00280024  RH  097%=      5-min Rain = 0
KWA1 080859Z 02011KT 03/02 A302 RMK A01 T00280024  RH  097%=      5-min Rain = 0
KWA1 080900Z 01011KT 03/02 A302 RMK A01 T00270023  RH  097%=      5-min Rain = 0.01
KWA1 080901Z 02010KT 03/02 A302 RMK A01 T00270023  RH  097%=      5-min Rain = 0
KWA1 080902Z 02009KT 03/02 A302 RMK A01 T00260022  RH  097%=      5-min Rain = 0
KWA1 080903Z 02010KT 03/02 A302 RMK A01 T00270022  RH  097%=      5-min Rain = 0
KWA1 080904Z 02007KT 03/02 A302 RMK A01 T00270022  RH  097%=      5-min Rain = 0
KWA1 080905Z 02007KT 03/02 A302 RMK A01 T00270022  RH  097%=      5-min Rain = 0
KWA1 080906Z 02008KT 03/02 A302 RMK A01 T00270023  RH  097%=      5-min Rain = 0
KWA1 080907Z 02009KT 03/02 A302 RMK A01 T00270023  RH  097%=      5-min Rain = 0
KWA1 080908Z 02011KT 03/02 A302 RMK A01 T00270023  RH  097%=      5-min Rain = 0
KWA1 080909Z 01011KT 03/02 A302 RMK A01 T00260022  RH  097%=      5-min Rain = 0
KWA1 080910Z 02010KT 03/02 A302 RMK A01 T00260022  RH  097%=      5-min Rain = 0
KWA1 080911Z 01008KT 03/02 A302 RMK A01 T00260022  RH  097%=      5-min Rain = 0
KWA1 080912Z 01009KT 03/02 A302 RMK A01 T00260022  RH  097%=      5-min Rain = 0
KWA1 080913Z 01011KT 03/02 A302 RMK A01 T00260022  RH  097%=      5-min Rain = 0
KWA1 080914Z 01011KT 03/02 A302 RMK A01 T00260022  RH  097%=      5-min Rain = 0
KWA1 080915Z 02012KT 03/02 A3021 RMK A01 T00260022  RH  097%=      5-min Rain = 0
KWA1 080916Z 01011KT 03/02 A3021 RMK A01 T00260021  RH  097%=      5-min Rain = 0
KWA1 080917Z 01007KT 03/02 A3021 RMK A01 T00260021  RH  097%=      5-min Rain = 0
KWA1 080918Z 01009KT 03/02 A3021 RMK A01 T00260022  RH  097%=      5-min Rain = 0
KWA1 080919Z 01007KT 03/02 A3021 RMK A01 T00260022  RH  097%=      5-min Rain = 0
KWA1 080920Z 01010KT 03/02 A3021 RMK A01 T00260022  RH  097%=      5-min Rain = 0
KWA1 080921Z 01012KT 03/02 A3021 RMK A01 T00260022  RH  097%=      5-min Rain = 0
KWA1 080922Z 02010KT 03/02 A3021 RMK A01 T00250021  RH  097%=      5-min Rain = 0
KWA1 080923Z 02014KT 03/02 A3021 RMK A01 T00250020  RH  097%=      5-min Rain = 0
KWA1 080924Z 01015KT 03/02 A3021 RMK A01 T00250020  RH  097%=      5-min Rain = 0
KWA1 080925Z 02012KT 03/02 A3021 RMK A01 T00250020  RH  096%=      5-min Rain = 0
KWA1 080926Z 02011KT 03/02 A3021 RMK A01 T00250020  RH  096%=      5-min Rain = 0
KWA1 080927Z 01012KT 03/02 A3021 RMK A01 T00250020  RH  096%=      5-min Rain = 0
KWA1 080928Z 01010KT 03/02 A3021 RMK A01 T00250020  RH  096%=      5-min Rain = 0
KWA1 080929Z 02011KT 03/02 A3021 RMK A01 T00250020  RH  096%=      5-min Rain = 0
KWA1 080930Z 01009KT 03/02 A3021 RMK A01 T00260020  RH  096%=      5-min Rain = 0
KWA1 080931Z 01008KT 03/02 A3021 RMK A01 T00260020  RH  096%=      5-min Rain = 0
KWA1 080932Z 01008KT 03/02 A3021 RMK A01 T00260021  RH  097%=      5-min Rain = 0
KWA1 080933Z 02007KT 03/02 A3021 RMK A01 T00260021  RH  097%=      5-min Rain = 0
KWA1 080934Z 01008KT 03/02 A3021 RMK A01 T00260021  RH  097%=      5-min Rain = 0
KWA1 080935Z 01009KT 03/02 A3021 RMK A01 T00260021  RH  097%=      5-min Rain = 0
KWA1 080936Z 01008KT 03/02 A3021 RMK A01 T00260022  RH  097%=      5-min Rain = 0
KWA1 080937Z 01009KT 03/02 A3021 RMK A01 T00260022  RH  097%=      5-min Rain = 0
KWA1 080938Z 01009KT 03/02 A3021 RMK A01 T00260022  RH  097%=      5-min Rain = 0
KWA1 080939Z 01007KT 03/02 A3021 RMK A01 T00260022  RH  097%=      5-min Rain = 0.01
KWA1 080940Z 01006KT 03/02 A3021 RMK A01 T00260022  RH  097%=      5-min Rain = 0
KWA1 080941Z 01007KT 03/02 A3021 RMK A01 T00260022  RH  097%=      5-min Rain = 0
KWA1 080942Z 01008KT 03/02 A3021 RMK A01 T00260023  RH  098%=      5-min Rain = 0
KWA1 080943Z 01008KT 03/02 A3021 RMK A01 T00260023  RH  097%=      5-min Rain = 0
KWA1 080944Z 01007KT 03/02 A3021 RMK A01 T00260022  RH  097%=      5-min Rain = 0
KWA1 080945Z 36008KT 03/02 A3021 RMK A01 T00260023  RH  098%=      5-min Rain = 0
KWA1 080946Z 36009KT 03/02 A3021 RMK A01 T00260023  RH  098%=      5-min Rain = 0
KWA1 080947Z 35009KT 03/02 A3021 RMK A01 T00270023  RH  098%=      5-min Rain = 0
KWA1 080948Z 36011KT 03/02 A3021 RMK A01 T00270023  RH  098%=      5-min Rain = 0
KWA1 080949Z 36010KT 03/02 A3021 RMK A01 T00270023  RH  098%=      5-min Rain = 0
KWA1 080950Z 36010KT 03/02 A3021 RMK A01 T00270023  RH  098%=      5-min Rain = 0
KWA1 080951Z 36010KT 03/02 A3021 RMK A01 T00260023  RH  098%=      5-min Rain = 0
KWA1 080952Z 36010KT 03/02 A3021 RMK A01 T00260023  RH  098%=      5-min Rain = 0
KWA1 080953Z 36009KT 03/02 A3021 RMK A01 T00260023  RH  098%=      5-min Rain = 0
KWA1 080954Z 35009KT 03/02 A3021 RMK A01 T00260023  RH  098%=      5-min Rain = 0
KWA1 080955Z 36009KT 03/02 A3021 RMK A01 T00260023  RH  098%=      5-min Rain = 0
KWA1 080956Z 35009KT 03/02 A3021 RMK A01 T00260023  RH  098%=      5-min Rain = 0
KWA1 080957Z 35009KT 03/02 A3021 RMK A01 T00260023  RH  098%=      5-min Rain = 0
KWA1 080958Z 35009KT 03/02 A3021 RMK A01 T00260023  RH  098%=      5-min Rain = 0
KWA1 080959Z 35009KT 03/02 A3021 RMK A01 T00260024  RH  098%=      5-min Rain = 0
KWA1 081000Z 35007KT 03/02 A3021 RMK A01 T00260023  RH  098%=      5-min Rain = 0
KWA1 081001Z 35009KT 03/02 A3021 RMK A01 T00260024  RH  098%=      5-min Rain = 0
KWA1 081002Z 35012KT 03/02 A3021 RMK A01 T00260023  RH  098%=      5-min Rain = 0
KWA1 081003Z 35010KT 03/02 A3021 RMK A01 T00250022  RH  098%=      5-min Rain = 0
KWA1 081004Z 36010KT 02/02 A302 RMK A01 T00240022  RH  098%=      5-min Rain = 0
KWA1 081005Z 36011KT 02/02 A302 RMK A01 T00240022  RH  098%=      5-min Rain = 0
KWA1 081006Z 36011KT 02/02 A302 RMK A01 T00240021  RH  098%=      5-min Rain = 0
KWA1 081007Z 36010KT 02/02 A302 RMK A01 T00240021  RH  098%=      5-min Rain = 0
KWA1 081008Z 35010KT 02/02 A302 RMK A01 T00240021  RH  098%=      5-min Rain = 0
KWA1 081009Z 36010KT 02/02 A3021 RMK A01 T00240021  RH  098%=      5-min Rain = 0
KWA1 081010Z 35010KT 02/02 A3021 RMK A01 T00240021  RH  098%=      5-min Rain = 0
KWA1 081011Z 36011KT 02/02 A302 RMK A01 T00240021  RH  098%=      5-min Rain = 0
KWA1 081012Z 36009KT 02/02 A3021 RMK A01 T00240021  RH  098%=      5-min Rain = 0
KWA1 081013Z 36008KT 02/02 A302 RMK A01 T00240021  RH  098%=      5-min Rain = 0
KWA1 081014Z 00008KT 02/02 A302 RMK A01 T00240022  RH  098%=      5-min Rain = 0.01
KWA1 081015Z 36007KT 02/02 A302 RMK A01 T00240022  RH  098%=      5-min Rain = 0
KWA1 081016Z 36008KT 02/02 A302 RMK A01 T00240022  RH  098%=      5-min Rain = 0
KWA1 081017Z 00010KT 02/02 A302 RMK A01 T00240022  RH  098%=      5-min Rain = 0
KWA1 081018Z 36008KT 02/02 A302 RMK A01 T00240022  RH  098%=      5-min Rain = 0
KWA1 081019Z 36008KT 03/02 A302 RMK A01 T00250022  RH  098%=      5-min Rain = 0
KWA1 081020Z 00009KT 02/02 A302 RMK A01 T00240022  RH  098%=      5-min Rain = 0
KWA1 081021Z 36011KT 02/02 A302 RMK A01 T00240022  RH  098%=      5-min Rain = 0
KWA1 081022Z 00010KT 02/02 A302 RMK A01 T00240021  RH  098%=      5-min Rain = 0
KWA1 081023Z 00011KT 02/02 A302 RMK A01 T00240021  RH  098%=      5-min Rain = 0
KWA1 081024Z 36010KT 02/02 A302 RMK A01 T00240021  RH  098%=      5-min Rain = 0
KWA1 081025Z 35011KT 02/02 A302 RMK A01 T00240021  RH  098%=      5-min Rain = 0
KWA1 081026Z 35010KT 02/02 A302 RMK A01 T00240022  RH  098%=      5-min Rain = 0
KWA1 081027Z 00011KT 02/02 A302 RMK A01 T00230021  RH  098%=      5-min Rain = 0
KWA1 081028Z 00010KT 02/02 A302 RMK A01 T00230021  RH  098%=      5-min Rain = 0
KWA1 081029Z 36009KT 02/02 A302 RMK A01 T00230021  RH  098%=      5-min Rain = 0
KWA1 081030Z 36010KT 02/02 A302 RMK A01 T00230021  RH  098%=      5-min Rain = 0
KWA1 081031Z 00010KT 02/02 A302 RMK A01 T00230021  RH  098%=      5-min Rain = 0
KWA1 081032Z 36009KT 02/02 A302 RMK A01 T00230021  RH  098%=      5-min Rain = 0
KWA1 081033Z 35011KT 02/02 A3021 RMK A01 T00230021  RH  099%=      5-min Rain = 0
KWA1 081034Z 35011KT 02/02 A3021 RMK A01 T00230021  RH  098%=      5-min Rain = 0.01
KWA1 081035Z 36010KT 02/02 A3021 RMK A01 T00230021  RH  098%=      5-min Rain = 0
KWA1 081036Z 35008KT 02/02 A3021 RMK A01 T00230021  RH  098%=      5-min Rain = 0
KWA1 081037Z 34009KT 02/02 A3021 RMK A01 T00230021  RH  099%=      5-min Rain = 0
KWA1 081038Z 34009KT 02/02 A3021 RMK A01 T00230021  RH  099%=      5-min Rain = 0
KWA1 081039Z 34008KT 02/02 A3021 RMK A01 T00230021  RH  099%=      5-min Rain = 0
KWA1 081040Z 34008KT 02/02 A3021 RMK A01 T00240022  RH  099%=      5-min Rain = 0
KWA1 081041Z 34008KT 02/02 A3021 RMK A01 T00240022  RH  099%=      5-min Rain = 0
KWA1 081042Z 33009KT 02/02 A3021 RMK A01 T00240022  RH  099%=      5-min Rain = 0
KWA1 081043Z 33009KT 02/02 A3021 RMK A01 T00240022  RH  099%=      5-min Rain = 0
KWA1 081044Z 33010KT 02/02 A3021 RMK A01 T00240022  RH  099%=      5-min Rain = 0
KWA1 081045Z 34010KT 02/02 A3021 RMK A01 T00240022  RH  099%=      5-min Rain = 0
KWA1 081046Z 34012KT 02/02 A3021 RMK A01 T00240022  RH  099%=      5-min Rain = 0
KWA1 081047Z 35012KT 02/02 A3021 RMK A01 T00230021  RH  098%=      5-min Rain = 0
KWA1 081048Z 34011KT 02/02 A3021 RMK A01 T00230021  RH  098%=      5-min Rain = 0
KWA1 081049Z 34012KT 02/02 A3021 RMK A01 T00230021  RH  098%=      5-min Rain = 0.01
KWA1 081050Z 34012KT 02/02 A3021 RMK A01 T00230021  RH  098%=      5-min Rain = 0
KWA1 081051Z 34011KT 02/02 A3021 RMK A01 T00230020  RH  098%=      5-min Rain = 0
KWA1 081052Z 35011KT 02/02 A3021 RMK A01 T00230020  RH  098%=      5-min Rain = 0
KWA1 081053Z 35012KT 02/02 A3021 RMK A01 T00230020  RH  098%=      5-min Rain = 0
KWA1 081054Z 34011KT 02/02 A3021 RMK A01 T00230020  RH  098%=      5-min Rain = 0
KWA1 081055Z 34010KT 02/02 A3021 RMK A01 T00230019  RH  098%=      5-min Rain = 0
KWA1 081056Z 35011KT 02/02 A3021 RMK A01 T00230020  RH  098%=      5-min Rain = 0
KWA1 081057Z 35012KT 02/02 A3021 RMK A01 T00230020  RH  098%=      5-min Rain = 0
KWA1 081058Z 35011KT 02/02 A3021 RMK A01 T00230019  RH  098%=      5-min Rain = 0
KWA1 081059Z 36012KT 02/02 A3021 RMK A01 T00230019  RH  098%=      5-min Rain = 0
KWA1 081100Z 36011KT 02/02 A3021 RMK A01 T00230019  RH  098%=      5-min Rain = 0
KWA1 081101Z 36010KT 02/02 A3021 RMK A01 T00220019  RH  098%=      5-min Rain = 0
KWA1 081102Z 36011KT 02/02 A3021 RMK A01 T00230019  RH  098%=      5-min Rain = 0
KWA1 081103Z 36011KT 02/02 A3021 RMK A01 T00220019  RH  098%=      5-min Rain = 0
KWA1 081104Z 36011KT 02/02 A3021 RMK A01 T00220019  RH  098%=      5-min Rain = 0
KWA1 081105Z 01011KT 02/02 A3021 RMK A01 T00230019  RH  098%=      5-min Rain = 0
KWA1 081106Z 00011KT 02/02 A3021 RMK A01 T00220019  RH  098%=      5-min Rain = 0
KWA1 081107Z 36010KT 02/02 A3021 RMK A01 T00220019  RH  098%=      5-min Rain = 0
KWA1 081108Z 00011KT 02/02 A3021 RMK A01 T00220019  RH  098%=      5-min Rain = 0
KWA1 081109Z 00010KT 02/02 A3021 RMK A01 T00230020  RH  098%=      5-min Rain = 0
KWA1 081110Z 36009KT 02/02 A302 RMK A01 T00230020  RH  098%=      5-min Rain = 0
KWA1 081111Z 00010KT 02/02 A302 RMK A01 T00230021  RH  098%=      5-min Rain = 0
KWA1 081112Z 35010KT 02/02 A302 RMK A01 T00230021  RH  098%=      5-min Rain = 0
KWA1 081113Z 35009KT 02/02 A302 RMK A01 T00230021  RH  098%=      5-min Rain = 0
KWA1 081114Z 35009KT 02/02 A3021 RMK A01 T00230021  RH  098%=      5-min Rain = 0
KWA1 081115Z 36008KT 02/02 A3021 RMK A01 T00240022  RH  098%=      5-min Rain = 0
KWA1 081116Z 35011KT 02/02 A3021 RMK A01 T00240022  RH  098%=      5-min Rain = 0
KWA1 081117Z 35011KT 02/02 A3021 RMK A01 T00240022  RH  098%=      5-min Rain = 0
KWA1 081118Z 35011KT 02/02 A3021 RMK A01 T00240021  RH  098%=      5-min Rain = 0.01
KWA1 081119Z 36011KT 02/02 A3021 RMK A01 T00230020  RH  098%=      5-min Rain = 0
KWA1 081120Z 35011KT 02/02 A3021 RMK A01 T00220019  RH  098%=      5-min Rain = 0
KWA1 081121Z 36010KT 02/02 A3021 RMK A01 T00230019  RH  098%=      5-min Rain = 0
KWA1 081122Z 36010KT 02/02 A3021 RMK A01 T00230019  RH  098%=      5-min Rain = 0
KWA1 081123Z 35010KT 02/02 A3021 RMK A01 T00230019  RH  098%=      5-min Rain = 0
KWA1 081124Z 35011KT 02/02 A3021 RMK A01 T00230019  RH  097%=      5-min Rain = 0
KWA1 081125Z 36011KT 02/02 A3021 RMK A01 T00230020  RH  097%=      5-min Rain = 0
KWA1 081126Z 35010KT 02/02 A3021 RMK A01 T00230019  RH  097%=      5-min Rain = 0
KWA1 081127Z 35009KT 02/02 A3021 RMK A01 T00230019  RH  097%=      5-min Rain = 0
KWA1 081128Z 35010KT 02/02 A3021 RMK A01 T00230019  RH  098%=      5-min Rain = 0
KWA1 081129Z 35009KT 02/02 A3021 RMK A01 T00230020  RH  098%=      5-min Rain = 0
KWA1 081130Z 35008KT 02/02 A3021 RMK A01 T00230020  RH  098%=      5-min Rain = 0
KWA1 081131Z 35009KT 02/02 A3021 RMK A01 T00230020  RH  098%=      5-min Rain = 0
KWA1 081132Z 35010KT 02/02 A3021 RMK A01 T00240020  RH  098%=      5-min Rain = 0
KWA1 081133Z 35011KT 02/02 A3021 RMK A01 T00230020  RH  098%=      5-min Rain = 0
KWA1 081134Z 35010KT 02/02 A3021 RMK A01 T00230020  RH  098%=      5-min Rain = 0
KWA1 081135Z 34009KT 02/02 A3021 RMK A01 T00240020  RH  098%=      5-min Rain = 0
KWA1 081136Z 34010KT 02/02 A3021 RMK A01 T00230020  RH  098%=      5-min Rain = 0.01
KWA1 081137Z 34008KT 02/02 A3021 RMK A01 T00240021  RH  098%=      5-min Rain = 0
KWA1 081138Z 34010KT 02/02 A3021 RMK A01 T00240021  RH  098%=      5-min Rain = 0
KWA1 081139Z 33011KT 02/02 A3021 RMK A01 T00240021  RH  098%=      5-min Rain = 0
KWA1 081140Z 33011KT 02/02 A3021 RMK A01 T00240020  RH  098%=      5-min Rain = 0
KWA1 081141Z 33011KT 02/02 A3022 RMK A01 T00230020  RH  098%=      5-min Rain = 0
KWA1 081142Z 33010KT 02/02 A3022 RMK A01 T00230020  RH  098%=      5-min Rain = 0
KWA1 081143Z 34010KT 02/02 A3022 RMK A01 T00230019  RH  098%=      5-min Rain = 0
KWA1 081144Z 34011KT 02/02 A3022 RMK A01 T00230020  RH  098%=      5-min Rain = 0
KWA1 081145Z 34010KT 02/02 A3022 RMK A01 T00230020  RH  098%=      5-min Rain = 0
KWA1 081146Z 35011KT 02/02 A3022 RMK A01 T00230019  RH  098%=      5-min Rain = 0
KWA1 081147Z 35012KT 02/02 A3022 RMK A01 T00230020  RH  098%=      5-min Rain = 0
KWA1 081148Z 35012KT 02/02 A3022 RMK A01 T00230019  RH  098%=      5-min Rain = 0
KWA1 081149Z 34010KT 02/02 A3022 RMK A01 T00230019  RH  098%=      5-min Rain = 0
KWA1 081150Z 34010KT 02/02 A3022 RMK A01 T00230020  RH  098%=      5-min Rain = 0
KWA1 081151Z 34011KT 02/02 A3022 RMK A01 T00230020  RH  098%=      5-min Rain = 0
KWA1 081152Z 35011KT 02/02 A3023 RMK A01 T00230020  RH  098%=      5-min Rain = 0
KWA1 081153Z 35013KT 02/02 A3023 RMK A01 T00230019  RH  098%=      5-min Rain = 0.01
KWA1 081154Z 35012KT 02/02 A3023 RMK A01 T00220018  RH  097%=      5-min Rain = 0
KWA1 081155Z 35010KT 02/02 A3023 RMK A01 T00220018  RH  097%=      5-min Rain = 0
KWA1 081156Z 35010G15KT 02/02 A3023 RMK A01 T00220019  RH  097%=      5-min Rain = 0
KWA1 081157Z 35011KT 02/02 A3023 RMK A01 T00220018  RH  097%=      5-min Rain = 0
KWA1 081158Z 35011KT 02/02 A3023 RMK A01 T00220018  RH  097%=      5-min Rain = 0
KWA1 081159Z 35011KT 02/02 A3023 RMK A01 T00230019  RH  097%=      5-min Rain = 0
KWA1 081200Z 35010KT 02/02 A3023 RMK A01 T00220019  RH  097%=      5-min Rain = 0
KWA1 081201Z 34011KT 02/02 A3023 RMK A01 T00220019  RH  097%=      5-min Rain = 0
KWA1 081202Z 34013KT 02/02 A3023 RMK A01 T00220019  RH  097%=      5-min Rain = 0
KWA1 081203Z 34012KT 02/02 A3023 RMK A01 T00220018  RH  097%=      5-min Rain = 0
KWA1 081204Z 34011KT 02/02 A3023 RMK A01 T00210017  RH  097%=      5-min Rain = 0
KWA1 081205Z 34011KT 02/02 A3023 RMK A01 T00220018  RH  097%=      5-min Rain = 0
KWA1 081206Z 34011KT 02/02 A3023 RMK A01 T00220018  RH  097%=      5-min Rain = 0
KWA1 081207Z 34011KT 02/02 A3023 RMK A01 T00220018  RH  097%=      5-min Rain = 0
KWA1 081208Z 34012KT 02/02 A3023 RMK A01 T00220018  RH  097%=      5-min Rain = 0
KWA1 081209Z 34010KT 02/02 A3023 RMK A01 T00220018  RH  097%=      5-min Rain = 0.01
KWA1 081210Z 34011KT 02/02 A3023 RMK A01 T00220018  RH  097%=      5-min Rain = 0
KWA1 081211Z 34012KT 02/02 A3023 RMK A01 T00220018  RH  097%=      5-min Rain = 0
KWA1 081212Z 34012KT 02/02 A3023 RMK A01 T00210018  RH  097%=      5-min Rain = 0
KWA1 081213Z 34010KT 02/02 A3023 RMK A01 T00210017  RH  097%=      5-min Rain = 0
KWA1 081214Z 35010KT 02/02 A3023 RMK A01 T00210017  RH  097%=      5-min Rain = 0
KWA1 081215Z 35010KT 02/02 A3023 RMK A01 T00210017  RH  097%=      5-min Rain = 0
KWA1 081216Z 35010KT 02/02 A3023 RMK A01 T00210017  RH  097%=      5-min Rain = 0
KWA1 081217Z 34011KT 02/02 A3023 RMK A01 T00210017  RH  097%=      5-min Rain = 0
KWA1 081218Z 35009KT 02/02 A3023 RMK A01 T00210017  RH  097%=      5-min Rain = 0
KWA1 081219Z 35011KT 02/02 A3023 RMK A01 T00210017  RH  097%=      5-min Rain = 0.01
KWA1 081220Z 36012KT 02/02 A3023 RMK A01 T00210017  RH  097%=      5-min Rain = 0
KWA1 081221Z 35011KT 02/02 A3023 RMK A01 T00210017  RH  097%=      5-min Rain = 0.01
KWA1 081222Z 35010KT 02/02 A3023 RMK A01 T00210017  RH  097%=      5-min Rain = 0
KWA1 081223Z 36012KT 02/02 A3023 RMK A01 T00210017  RH  097%=      5-min Rain = 0.01
KWA1 081224Z 36011KT 02/02 A3023 RMK A01 T00200016  RH  097%=      5-min Rain = 0
KWA1 081225Z 36011KT 02/02 A3023 RMK A01 T00200017  RH  097%=      5-min Rain = 0.01
KWA1 081226Z 36012KT 02/02 A3023 RMK A01 T00200017  RH  098%=      5-min Rain = 0
KWA1 081227Z 36012KT 02/02 A3023 RMK A01 T00200017  RH  098%=      5-min Rain = 0.01
KWA1 081228Z 00010KT 02/02 A3023 RMK A01 T00200016  RH  098%=      5-min Rain = 0
KWA1 081229Z 36010KT 02/02 A3023 RMK A01 T00200016  RH  098%=      5-min Rain = 0.01
KWA1 081230Z 00008KT 02/02 A3023 RMK A01 T00200016  RH  098%=      5-min Rain = 0
KWA1 081231Z 00009KT 02/02 A3023 RMK A01 T00200016  RH  098%=      5-min Rain = 0.01
KWA1 081232Z 00008KT 02/02 A3023 RMK A01 T00200017  RH  098%=      5-min Rain = 0
KWA1 081233Z 36008KT 02/02 A3024 RMK A01 T00200017  RH  098%=      5-min Rain = 0.01
KWA1 081234Z 35007KT 02/02 A3024 RMK A01 T00200017  RH  098%=      5-min Rain = 0
KWA1 081235Z 36007KT 02/02 A3024 RMK A01 T00200017  RH  098%=      5-min Rain = 0.01
KWA1 081236Z 36009KT 02/02 A3024 RMK A01 T00200017  RH  098%=      5-min Rain = 0
KWA1 081237Z 00008KT 02/02 A3024 RMK A01 T00200017  RH  098%=      5-min Rain = 0.01
KWA1 081238Z 00009KT 02/02 A3024 RMK A01 T00200017  RH  098%=      5-min Rain = 0
KWA1 081239Z 00008KT 02/02 A3024 RMK A01 T00190016  RH  098%=      5-min Rain = 0
KWA1 081240Z 36009KT 02/02 A3023 RMK A01 T00190016  RH  098%=      5-min Rain = 0.01
KWA1 081241Z 00010KT 02/02 A3024 RMK A01 T00190016  RH  098%=      5-min Rain = 0
KWA1 081242Z 00009KT 02/02 A3024 RMK A01 T00190016  RH  098%=      5-min Rain = 0.01
KWA1 081243Z 36009KT 02/02 A3024 RMK A01 T00190016  RH  098%=      5-min Rain = 0
KWA1 081244Z 00010KT 02/02 A3024 RMK A01 T00190017  RH  098%=      5-min Rain = 0
KWA1 081245Z 01008KT 02/02 A3024 RMK A01 T00190017  RH  098%=      5-min Rain = 0
KWA1 081246Z 00010KT 02/02 A3024 RMK A01 T00200017  RH  098%=      5-min Rain = 0.01
KWA1 081247Z 36009KT 02/02 A3024 RMK A01 T00190017  RH  098%=      5-min Rain = 0
KWA1 081248Z 36009KT 02/02 A3024 RMK A01 T00200017  RH  098%=      5-min Rain = 0
KWA1 081249Z 00009KT 02/02 A3024 RMK A01 T00190016  RH  098%=      5-min Rain = 0
KWA1 081250Z 00009KT 02/02 A3024 RMK A01 T00190017  RH  098%=      5-min Rain = 0.01
KWA1 081251Z 00009KT 02/02 A3024 RMK A01 T00190016  RH  098%=      5-min Rain = 0
KWA1 081252Z 01009KT 02/02 A3024 RMK A01 T00190016  RH  098%=      5-min Rain = 0
KWA1 081253Z 00009KT 02/02 A3024 RMK A01 T00190016  RH  098%=      5-min Rain = 0
KWA1 081254Z 00010KT 02/02 A3024 RMK A01 T00190015  RH  098%=      5-min Rain = 0
KWA1 081255Z 36011KT 02/02 A3024 RMK A01 T00190015  RH  098%=      5-min Rain = 0.01
KWA1 081256Z 00010KT 02/02 A3024 RMK A01 T00190015  RH  098%=      5-min Rain = 0
KWA1 081257Z 00009KT 02/02 A3024 RMK A01 T00190015  RH  097%=      5-min Rain = 0
KWA1 081258Z 36010KT 02/02 A3024 RMK A01 T00190015  RH  097%=      5-min Rain = 0
KWA1 081259Z 01008KT 02/02 A3024 RMK A01 T00190015  RH  097%=      5-min Rain = 0
KWA1 081300Z 00010KT 02/02 A3024 RMK A01 T00190015  RH  097%=      5-min Rain = 0
KWA1 081301Z 01010KT 02/02 A3024 RMK A01 T00190015  RH  097%=      5-min Rain = 0.01
KWA1 081302Z 00008KT 02/02 A3024 RMK A01 T00190015  RH  097%=      5-min Rain = 0
KWA1 081303Z 36008KT 02/02 A3024 RMK A01 T00190015  RH  097%=      5-min Rain = 0
KWA1 081304Z 36010KT 02/02 A3024 RMK A01 T00190016  RH  097%=      5-min Rain = 0
KWA1 081305Z 35010KT 02/02 A3024 RMK A01 T00190016  RH  098%=      5-min Rain = 0
KWA1 081306Z 00009KT 02/02 A3024 RMK A01 T00190016  RH  097%=      5-min Rain = 0
KWA1 081307Z 36007KT 02/02 A3024 RMK A01 T00190016  RH  098%=      5-min Rain = 0
KWA1 081308Z 00008KT 02/02 A3024 RMK A01 T00200017  RH  098%=      5-min Rain = 0
KWA1 081309Z 00007KT 02/02 A3024 RMK A01 T00200016  RH  098%=      5-min Rain = 0
KWA1 081310Z 00007KT 02/02 A3024 RMK A01 T00200016  RH  098%=      5-min Rain = 0.01
KWA1 081311Z 00008KT 02/02 A3024 RMK A01 T00190016  RH  098%=      5-min Rain = 0
KWA1 081312Z 01007KT 02/02 A3025 RMK A01 T00190015  RH  097%=      5-min Rain = 0
KWA1 081313Z 36009KT 02/02 A3025 RMK A01 T00190015  RH  097%=      5-min Rain = 0
KWA1 081314Z 00008KT 02/02 A3025 RMK A01 T00190015  RH  097%=      5-min Rain = 0
KWA1 081315Z 00008KT 02/02 A3025 RMK A01 T00190015  RH  097%=      5-min Rain = 0
KWA1 081316Z 00008KT 02/02 A3025 RMK A01 T00190015  RH  097%=      5-min Rain = 0
KWA1 081317Z 36009KT 02/02 A3025 RMK A01 T00190015  RH  097%=      5-min Rain = 0
KWA1 081318Z 35009KT 02/02 A3025 RMK A01 T00190015  RH  097%=      5-min Rain = 0
KWA1 081319Z 35010KT 02/02 A3025 RMK A01 T00190015  RH  097%=      5-min Rain = 0
KWA1 081320Z 01010KT 02/02 A3025 RMK A01 T00190015  RH  097%=      5-min Rain = 0
KWA1 081321Z 35010KT 02/01 A3025 RMK A01 T00190014  RH  097%=      5-min Rain = 0
KWA1 081322Z 36010KT 02/01 A3025 RMK A01 T00190014  RH  097%=      5-min Rain = 0
KWA1 081323Z 01011KT 02/01 A3025 RMK A01 T00190014  RH  096%=      5-min Rain = 0
KWA1 081324Z 35009KT 02/01 A3025 RMK A01 T00190014  RH  096%=      5-min Rain = 0
KWA1 081325Z 35009KT 02/01 A3025 RMK A01 T00190014  RH  096%=      5-min Rain = 0
KWA1 081326Z 36009KT 02/01 A3025 RMK A01 T00190014  RH  096%=      5-min Rain = 0
KWA1 081327Z 00009KT 02/01 A3026 RMK A01 T00190014  RH  096%=      5-min Rain = 0
KWA1 081328Z 35007KT 02/01 A3026 RMK A01 T00190014  RH  096%=      5-min Rain = 0.01
KWA1 081329Z 35008KT 02/01 A3026 RMK A01 T00190014  RH  096%=      5-min Rain = 0
KWA1 081330Z 35008KT 02/02 A3026 RMK A01 T00200015  RH  097%=      5-min Rain = 0
KWA1 081331Z 35007KT 02/02 A3026 RMK A01 T00200015  RH  097%=      5-min Rain = 0
KWA1 081332Z 35007KT 02/02 A3026 RMK A01 T00200015  RH  097%=      5-min Rain = 0
KWA1 081333Z 34007KT 02/02 A3026 RMK A01 T00200015  RH  097%=      5-min Rain = 0
KWA1 081334Z 35008KT 02/02 A3026 RMK A01 T00200015  RH  097%=      5-min Rain = 0
KWA1 081335Z 34007KT 02/02 A3026 RMK A01 T00200015  RH  097%=      5-min Rain = 0
KWA1 081336Z 35009KT 02/02 A3026 RMK A01 T00200015  RH  097%=      5-min Rain = 0
KWA1 081337Z 36008KT 02/02 A3026 RMK A01 T00200016  RH  097%=      5-min Rain = 0
KWA1 081338Z 35007KT 02/02 A3026 RMK A01 T00200016  RH  097%=      5-min Rain = 0
KWA1 081339Z 34008KT 02/02 A3026 RMK A01 T00200016  RH  097%=      5-min Rain = 0
KWA1 081340Z 34007KT 02/02 A3026 RMK A01 T00200016  RH  097%=      5-min Rain = 0
KWA1 081341Z 34009KT 02/02 A3026 RMK A01 T00200016  RH  097%=      5-min Rain = 0
KWA1 081342Z 35011KT 02/02 A3026 RMK A01 T00200016  RH  097%=      5-min Rain = 0
KWA1 081343Z 35010KT 02/02 A3026 RMK A01 T00190015  RH  097%=      5-min Rain = 0
KWA1 081344Z 34008KT 02/02 A3026 RMK A01 T00190015  RH  097%=      5-min Rain = 0
KWA1 081345Z 33007KT 02/02 A3026 RMK A01 T00190015  RH  097%=      5-min Rain = 0
KWA1 081346Z 33008KT 02/02 A3026 RMK A01 T00200016  RH  097%=      5-min Rain = 0
KWA1 081347Z 33008KT 02/02 A3026 RMK A01 T00200016  RH  097%=      5-min Rain = 0
KWA1 081348Z 33010KT 02/02 A3026 RMK A01 T00200016  RH  097%=      5-min Rain = 0
KWA1 081349Z 33011KT 02/02 A3026 RMK A01 T00200016  RH  097%=      5-min Rain = 0
KWA1 081350Z 34010KT 02/02 A3026 RMK A01 T00190015  RH  097%=      5-min Rain = 0
KWA1 081351Z 34010KT 02/02 A3027 RMK A01 T00190015  RH  097%=      5-min Rain = 0
KWA1 081352Z 34009KT 02/02 A3027 RMK A01 T00190015  RH  097%=      5-min Rain = 0
KWA1 081353Z 35008KT 02/02 A3027 RMK A01 T00190015  RH  097%=      5-min Rain = 0
KWA1 081354Z 35010KT 02/02 A3027 RMK A01 T00200015  RH  097%=      5-min Rain = 0
KWA1 081355Z 35009KT 02/02 A3027 RMK A01 T00190015  RH  097%=      5-min Rain = 0
KWA1 081356Z 35010KT 02/02 A3027 RMK A01 T00190015  RH  097%=      5-min Rain = 0
KWA1 081357Z 35010KT 02/02 A3027 RMK A01 T00190015  RH  097%=      5-min Rain = 0
KWA1 081358Z 35010KT 02/01 A3027 RMK A01 T00190014  RH  096%=      5-min Rain = 0
KWA1 081359Z 34010KT 02/01 A3027 RMK A01 T00190014  RH  096%=      5-min Rain = 0
KWA1 081400Z 34011KT 02/01 A3027 RMK A01 T00190014  RH  096%=      5-min Rain = 0
KWA1 081401Z 35012KT 02/01 A3027 RMK A01 T00190014  RH  096%=      5-min Rain = 0
KWA1 081402Z 35011KT 02/01 A3027 RMK A01 T00190014  RH  096%=      5-min Rain = 0
KWA1 081403Z 34009KT 02/01 A3027 RMK A01 T00190014  RH  096%=      5-min Rain = 0
KWA1 081404Z 34011KT 02/01 A3027 RMK A01 T00190014  RH  096%=      5-min Rain = 0
KWA1 081405Z 35010KT 02/01 A3027 RMK A01 T00190014  RH  096%=      5-min Rain = 0
KWA1 081406Z 34010KT 02/01 A3027 RMK A01 T00190014  RH  097%=      5-min Rain = 0
KWA1 081407Z 35011KT 02/02 A3027 RMK A01 T00190015  RH  097%=      5-min Rain = 0.01
KWA1 081408Z 34010KT 02/01 A3027 RMK A01 T00190013  RH  096%=      5-min Rain = 0
KWA1 081409Z 35010KT 02/01 A3027 RMK A01 T00190013  RH  096%=      5-min Rain = 0
KWA1 081410Z 35009KT 02/01 A3027 RMK A01 T00190013  RH  096%=      5-min Rain = 0
KWA1 081411Z 35009KT 02/01 A3027 RMK A01 T00190014  RH  096%=      5-min Rain = 0
KWA1 081412Z 35008KT 02/01 A3027 RMK A01 T00200014  RH  096%=      5-min Rain = 0
KWA1 081413Z 36009KT 02/02 A3027 RMK A01 T00200015  RH  096%=      5-min Rain = 0
KWA1 081414Z 36009KT 02/01 A3027 RMK A01 T00200014  RH  096%=      5-min Rain = 0
KWA1 081415Z 35010KT 02/01 A3027 RMK A01 T00200014  RH  096%=      5-min Rain = 0
KWA1 081416Z 35009KT 02/01 A3027 RMK A01 T00200014  RH  096%=      5-min Rain = 0
KWA1 081417Z 36011KT 02/01 A3027 RMK A01 T00200014  RH  096%=      5-min Rain = 0
KWA1 081418Z 35010KT 02/01 A3027 RMK A01 T00200014  RH  096%=      5-min Rain = 0
KWA1 081419Z 35010KT 02/01 A3027 RMK A01 T00200014  RH  096%=      5-min Rain = 0
KWA1 081420Z 35011KT 02/01 A3027 RMK A01 T00200014  RH  096%=      5-min Rain = 0
KWA1 081421Z 35010KT 02/01 A3027 RMK A01 T00200013  RH  096%=      5-min Rain = 0
KWA1 081422Z 35011KT 02/01 A3027 RMK A01 T00200013  RH  095%=      5-min Rain = 0
KWA1 081423Z 35010KT 02/01 A3027 RMK A01 T00200013  RH  095%=      5-min Rain = 0
KWA1 081424Z 34009KT 02/01 A3027 RMK A01 T00200013  RH  096%=      5-min Rain = 0
KWA1 081425Z 36008KT 02/01 A3027 RMK A01 T00200014  RH  096%=      5-min Rain = 0
KWA1 081426Z 00008KT 02/02 A3027 RMK A01 T00210015  RH  096%=      5-min Rain = 0
KWA1 081427Z 36009KT 02/02 A3027 RMK A01 T00210015  RH  096%=      5-min Rain = 0
KWA1 081428Z 36010KT 02/02 A3027 RMK A01 T00210015  RH  096%=      5-min Rain = 0
KWA1 081429Z 36013KT 02/01 A3027 RMK A01 T00210013  RH  095%=      5-min Rain = 0
KWA1 081430Z 35013KT 02/01 A3027 RMK A01 T00200012  RH  095%=      5-min Rain = 0
KWA1 081431Z 36011KT 02/01 A3027 RMK A01 T00200012  RH  094%=      5-min Rain = 0
KWA1 081432Z 35011KT 02/01 A3027 RMK A01 T00210013  RH  095%=      5-min Rain = 0
KWA1 081433Z 36011KT 02/01 A3027 RMK A01 T00210012  RH  094%=      5-min Rain = 0
KWA1 081434Z 35009KT 02/01 A3027 RMK A01 T00200012  RH  094%=      5-min Rain = 0
KWA1 081435Z 35009KT 02/01 A3028 RMK A01 T00210013  RH  095%=      5-min Rain = 0
KWA1 081436Z 34009KT 02/01 A3028 RMK A01 T00210013  RH  095%=      5-min Rain = 0
KWA1 081437Z 34009KT 02/01 A3028 RMK A01 T00210013  RH  095%=      5-min Rain = 0
KWA1 081438Z 34008KT 02/01 A3028 RMK A01 T00210013  RH  095%=      5-min Rain = 0
KWA1 081439Z 34008KT 02/01 A3028 RMK A01 T00210014  RH  095%=      5-min Rain = 0
KWA1 081440Z 34009KT 02/01 A3028 RMK A01 T00210014  RH  095%=      5-min Rain = 0
KWA1 081441Z 34010KT 02/01 A3028 RMK A01 T00210014  RH  095%=      5-min Rain = 0
KWA1 081442Z 34010KT 02/01 A3028 RMK A01 T00210013  RH  095%=      5-min Rain = 0
KWA1 081443Z 34010KT 02/01 A3028 RMK A01 T00200012  RH  094%=      5-min Rain = 0
KWA1 081444Z 34010KT 02/01 A3028 RMK A01 T00210012  RH  094%=      5-min Rain = 0
KWA1 081445Z 35010KT 02/01 A3028 RMK A01 T00210013  RH  094%=      5-min Rain = 0
KWA1 081446Z 34010KT 02/01 A3028 RMK A01 T00210012  RH  094%=      5-min Rain = 0
KWA1 081447Z 34010KT 02/01 A3028 RMK A01 T00210013  RH  094%=      5-min Rain = 0
KWA1 081448Z 34009KT 02/01 A3028 RMK A01 T00210013  RH  094%=      5-min Rain = 0
KWA1 081449Z 34009KT 02/01 A3028 RMK A01 T00220014  RH  095%=      5-min Rain = 0
KWA1 081450Z 34009KT 02/02 A3028 RMK A01 T00220015  RH  095%=      5-min Rain = 0
KWA1 081451Z 34009KT 02/02 A3028 RMK A01 T00220015  RH  095%=      5-min Rain = 0
KWA1 081452Z 34009KT 02/02 A3028 RMK A01 T00220015  RH  095%=      5-min Rain = 0
KWA1 081453Z 33010KT 02/02 A3029 RMK A01 T00220015  RH  095%=      5-min Rain = 0
KWA1 081454Z 33010KT 02/02 A3029 RMK A01 T00220015  RH  095%=      5-min Rain = 0
KWA1 081455Z 33010KT 02/01 A3028 RMK A01 T00210014  RH  095%=      5-min Rain = 0
KWA1 081456Z 34011KT 02/01 A3029 RMK A01 T00210014  RH  095%=      5-min Rain = 0
KWA1 081457Z 34011KT 02/01 A3029 RMK A01 T00210014  RH  095%=      5-min Rain = 0
KWA1 081458Z 33011KT 02/01 A3029 RMK A01 T00210014  RH  095%=      5-min Rain = 0
KWA1 081459Z 35010KT 02/01 A3029 RMK A01 T00210013  RH  095%=      5-min Rain = 0
KWA1 081500Z 34010KT 02/01 A3029 RMK A01 T00210014  RH  095%=      5-min Rain = 0
KWA1 081501Z 33011KT 02/02 A3029 RMK A01 T00220015  RH  095%=      5-min Rain = 0
KWA1 081502Z 34010KT 02/02 A3029 RMK A01 T00210015  RH  095%=      5-min Rain = 0
KWA1 081503Z 34010KT 02/02 A3029 RMK A01 T00210015  RH  096%=      5-min Rain = 0
KWA1 081504Z 34010KT 02/02 A3029 RMK A01 T00210015  RH  096%=      5-min Rain = 0
KWA1 081505Z 34010KT 02/02 A3029 RMK A01 T00210015  RH  096%=      5-min Rain = 0
KWA1 081506Z 34011KT 02/02 A3029 RMK A01 T00210015  RH  096%=      5-min Rain = 0
KWA1 081507Z 34010KT 02/02 A3029 RMK A01 T00210015  RH  096%=      5-min Rain = 0
KWA1 081508Z 34011KT 02/02 A3029 RMK A01 T00210015  RH  096%=      5-min Rain = 0
KWA1 081509Z 34012KT 02/02 A3029 RMK A01 T00210015  RH  096%=      5-min Rain = 0
KWA1 081510Z 34011KT 02/02 A3029 RMK A01 T00210015  RH  096%=      5-min Rain = 0
KWA1 081511Z 34010KT 02/02 A3029 RMK A01 T00210016  RH  096%=      5-min Rain = 0
KWA1 081512Z 33010KT 02/02 A3029 RMK A01 T00220017  RH  096%=      5-min Rain = 0
KWA1 081513Z 34011KT 02/02 A3029 RMK A01 T00220016  RH  097%=      5-min Rain = 0
KWA1 081514Z 34011KT 02/02 A3029 RMK A01 T00210016  RH  096%=      5-min Rain = 0
KWA1 081515Z 34011KT 02/02 A3029 RMK A01 T00220017  RH  096%=      5-min Rain = 0
KWA1 081516Z 34011KT 02/02 A3029 RMK A01 T00220017  RH  097%=      5-min Rain = 0
KWA1 081517Z 33012KT 02/02 A3029 RMK A01 T00210016  RH  096%=      5-min Rain = 0
KWA1 081518Z 34010KT 02/02 A3029 RMK A01 T00210015  RH  096%=      5-min Rain = 0
KWA1 081519Z 34011KT 02/02 A303 RMK A01 T00210016  RH  096%=      5-min Rain = 0.01
KWA1 081520Z 35012KT 02/02 A3029 RMK A01 T00220016  RH  096%=      5-min Rain = 0
KWA1 081521Z 35011KT 02/02 A303 RMK A01 T00220016  RH  096%=      5-min Rain = 0
KWA1 081522Z 35010KT 02/02 A303 RMK A01 T00220016  RH  096%=      5-min Rain = 0
KWA1 081523Z 35009KT 02/02 A303 RMK A01 T00220016  RH  096%=      5-min Rain = 0
KWA1 081524Z 35009KT 02/02 A3029 RMK A01 T00220017  RH  096%=      5-min Rain = 0
KWA1 081525Z 34011KT 02/02 A303 RMK A01 T00230018  RH  097%=      5-min Rain = 0
KWA1 081526Z 34011KT 02/02 A303 RMK A01 T00230018  RH  097%=      5-min Rain = 0
KWA1 081527Z 35011KT 02/02 A303 RMK A01 T00220017  RH  097%=      5-min Rain = 0
KWA1 081528Z 35010KT 02/02 A303 RMK A01 T00220017  RH  096%=      5-min Rain = 0
KWA1 081529Z 35011KT 02/02 A303 RMK A01 T00210016  RH  097%=      5-min Rain = 0
KWA1 081530Z 35010KT 02/02 A303 RMK A01 T00220017  RH  097%=      5-min Rain = 0
KWA1 081531Z 34011KT 02/02 A303 RMK A01 T00220017  RH  097%=      5-min Rain = 0
KWA1 081532Z 34010KT 02/02 A303 RMK A01 T00220017  RH  097%=      5-min Rain = 0
KWA1 081533Z 35010KT 02/02 A303 RMK A01 T00220018  RH  097%=      5-min Rain = 0
KWA1 081534Z 34010KT 02/02 A303 RMK A01 T00220018  RH  097%=      5-min Rain = 0
KWA1 081535Z 35011KT 02/02 A303 RMK A01 T00210016  RH  097%=      5-min Rain = 0
KWA1 081536Z 35010KT 02/02 A303 RMK A01 T00220017  RH  097%=      5-min Rain = 0
KWA1 081537Z 35010KT 02/02 A303 RMK A01 T00220017  RH  096%=      5-min Rain = 0
KWA1 081538Z 35009KT 02/02 A303 RMK A01 T00220017  RH  096%=      5-min Rain = 0
KWA1 081539Z 34010KT 02/02 A303 RMK A01 T00220017  RH  096%=      5-min Rain = 0
KWA1 081540Z 34009KT 02/02 A303 RMK A01 T00220017  RH  096%=      5-min Rain = 0
KWA1 081541Z 35010KT 02/02 A303 RMK A01 T00220018  RH  097%=      5-min Rain = 0
KWA1 081542Z 35009KT 02/02 A303 RMK A01 T00230018  RH  097%=      5-min Rain = 0
KWA1 081543Z 35009KT 02/02 A303 RMK A01 T00230018  RH  097%=      5-min Rain = 0
KWA1 081544Z 34010KT 02/02 A303 RMK A01 T00230018  RH  097%=      5-min Rain = 0
KWA1 081545Z 35011KT 02/02 A303 RMK A01 T00230018  RH  096%=      5-min Rain = 0
KWA1 081546Z 35010KT 02/02 A303 RMK A01 T00220017  RH  096%=      5-min Rain = 0
KWA1 081547Z 35009KT 02/02 A303 RMK A01 T00220017  RH  096%=      5-min Rain = 0
KWA1 081548Z 35009KT 02/02 A303 RMK A01 T00230018  RH  097%=      5-min Rain = 0
KWA1 081549Z 34011KT 02/02 A303 RMK A01 T00230019  RH  097%=      5-min Rain = 0
KWA1 081550Z 34011KT 02/02 A303 RMK A01 T00230018  RH  096%=      5-min Rain = 0
KWA1 081551Z 34010KT 02/02 A303 RMK A01 T00230018  RH  096%=      5-min Rain = 0
KWA1 081552Z 35010KT 02/02 A303 RMK A01 T00240018  RH  096%=      5-min Rain = 0
KWA1 081553Z 34012KT 02/02 A303 RMK A01 T00240018  RH  096%=      5-min Rain = 0
KWA1 081554Z 34012KT 02/02 A303 RMK A01 T00230017  RH  096%=      5-min Rain = 0
KWA1 081555Z 34010KT 02/02 A303 RMK A01 T00230016  RH  096%=      5-min Rain = 0
KWA1 081556Z 35011KT 02/02 A303 RMK A01 T00230017  RH  096%=      5-min Rain = 0
KWA1 081557Z 35010KT 02/02 A303 RMK A01 T00230017  RH  096%=      5-min Rain = 0
KWA1 081558Z 35010KT 02/02 A303 RMK A01 T00240018  RH  096%=      5-min Rain = 0
KWA1 081559Z 35011KT 02/02 A303 RMK A01 T00240018  RH  096%=      5-min Rain = 0
KWA1 081600Z 34010KT 02/02 A303 RMK A01 T00240018  RH  096%=      5-min Rain = 0
KWA1 081601Z 34011KT 02/02 A303 RMK A01 T00240018  RH  096%=      5-min Rain = 0
KWA1 081602Z 35009KT 02/02 A303 RMK A01 T00230017  RH  095%=      5-min Rain = 0
KWA1 081603Z 34008KT 02/02 A303 RMK A01 T00240018  RH  096%=      5-min Rain = 0
KWA1 081604Z 34010KT 03/02 A303 RMK A01 T00250020  RH  096%=      5-min Rain = 0
KWA1 081605Z 34010KT 03/02 A303 RMK A01 T00250020  RH  096%=      5-min Rain = 0
KWA1 081606Z 34010KT 02/02 A303 RMK A01 T00240018  RH  096%=      5-min Rain = 0
KWA1 081607Z 34008KT 02/02 A303 RMK A01 T00240019  RH  096%=      5-min Rain = 0
KWA1 081608Z 34008KT 03/02 A303 RMK A01 T00250019  RH  096%=      5-min Rain = 0
KWA1 081609Z 34009KT 03/02 A303 RMK A01 T00250019  RH  096%=      5-min Rain = 0
KWA1 081610Z 34008KT 03/02 A303 RMK A01 T00250019  RH  096%=      5-min Rain = 0
KWA1 081611Z 34008KT 03/02 A303 RMK A01 T00250020  RH  096%=      5-min Rain = 0
KWA1 081612Z 34010KT 03/02 A303 RMK A01 T00260020  RH  096%=      5-min Rain = 0
KWA1 081613Z 34010KT 03/02 A303 RMK A01 T00260019  RH  096%=      5-min Rain = 0
KWA1 081614Z 33010KT 03/02 A303 RMK A01 T00250019  RH  095%=      5-min Rain = 0
KWA1 081615Z 33010KT 03/02 A303 RMK A01 T00260020  RH  096%=      5-min Rain = 0
KWA1 081616Z 33010KT 03/02 A303 RMK A01 T00260020  RH  096%=      5-min Rain = 0
KWA1 081617Z 33010KT 03/02 A303 RMK A01 T00260020  RH  096%=      5-min Rain = 0
KWA1 081618Z 34011KT 03/02 A303 RMK A01 T00270020  RH  096%=      5-min Rain = 0
KWA1 081619Z 34012KT 03/02 A303 RMK A01 T00260019  RH  095%=      5-min Rain = 0
KWA1 081620Z 35010KT 03/02 A303 RMK A01 T00260019  RH  095%=      5-min Rain = 0
KWA1 081621Z 34010KT 03/02 A303 RMK A01 T00260019  RH  095%=      5-min Rain = 0
KWA1 081622Z 34012KT 03/02 A303 RMK A01 T00270020  RH  095%=      5-min Rain = 0
KWA1 081623Z 34011KT 03/02 A303 RMK A01 T00270019  RH  095%=      5-min Rain = 0
KWA1 081624Z 34012KT 03/02 A303 RMK A01 T00270019  RH  095%=      5-min Rain = 0
KWA1 081625Z 34011KT 03/02 A303 RMK A01 T00260018  RH  094%=      5-min Rain = 0
KWA1 081626Z 34010KT 03/02 A303 RMK A01 T00260018  RH  094%=      5-min Rain = 0
KWA1 081627Z 34011KT 03/02 A303 RMK A01 T00260019  RH  095%=      5-min Rain = 0
KWA1 081628Z 33010KT 03/02 A3031 RMK A01 T00270019  RH  095%=      5-min Rain = 0
KWA1 081629Z 33009KT 03/02 A3031 RMK A01 T00270019  RH  095%=      5-min Rain = 0
KWA1 081630Z 33011KT 03/02 A3031 RMK A01 T00270020  RH  095%=      5-min Rain = 0
KWA1 081631Z 34011KT 03/02 A3031 RMK A01 T00270020  RH  095%=      5-min Rain = 0
KWA1 081632Z 34010KT 03/02 A3031 RMK A01 T00270019  RH  095%=      5-min Rain = 0
KWA1 081633Z 34009KT 03/02 A3031 RMK A01 T00270020  RH  095%=      5-min Rain = 0
KWA1 081634Z 34011KT 03/02 A3031 RMK A01 T00270020  RH  095%=      5-min Rain = 0
KWA1 081635Z 34011KT 03/02 A303 RMK A01 T00270020  RH  095%=      5-min Rain = 0
KWA1 081636Z 34009KT 03/02 A303 RMK A01 T00270020  RH  095%=      5-min Rain = 0
KWA1 081637Z 34010KT 03/02 A303 RMK A01 T00280021  RH  095%=      5-min Rain = 0
KWA1 081638Z 34012KT 03/02 A303 RMK A01 T00280020  RH  095%=      5-min Rain = 0
KWA1 081639Z 34009KT 03/02 A303 RMK A01 T00280020  RH  094%=      5-min Rain = 0
KWA1 081640Z 34009KT 03/02 A303 RMK A01 T00280021  RH  095%=      5-min Rain = 0
KWA1 081641Z 34010KT 03/02 A303 RMK A01 T00280021  RH  095%=      5-min Rain = 0
KWA1 081642Z 34011KT 03/02 A303 RMK A01 T00290021  RH  095%=      5-min Rain = 0
KWA1 081643Z 35009KT 03/02 A303 RMK A01 T00290021  RH  094%=      5-min Rain = 0
KWA1 081644Z 35009KT 03/02 A303 RMK A01 T00300022  RH  094%=      5-min Rain = 0
KWA1 081645Z 35010KT 03/02 A303 RMK A01 T00300022  RH  094%=      5-min Rain = 0
KWA1 081646Z 35010KT 03/02 A303 RMK A01 T00300021  RH  093%=      5-min Rain = 0
KWA1 081647Z 35010KT 03/02 A303 RMK A01 T00300020  RH  093%=      5-min Rain = 0
KWA1 081648Z 35009KT 03/02 A303 RMK A01 T00310021  RH  093%=      5-min Rain = 0
KWA1 081649Z 34009KT 03/02 A303 RMK A01 T00310021  RH  093%=      5-min Rain = 0
KWA1 081650Z 33009KT 03/02 A303 RMK A01 T00320022  RH  093%=      5-min Rain = 0
KWA1 081651Z 34009KT 03/02 A303 RMK A01 T00320023  RH  093%=      5-min Rain = 0
KWA1 081652Z 34011KT 03/02 A303 RMK A01 T00330023  RH  093%=      5-min Rain = 0
KWA1 081653Z 34010KT 03/02 A303 RMK A01 T00330022  RH  093%=      5-min Rain = 0
KWA1 081654Z 34011KT 03/02 A303 RMK A01 T00330022  RH  093%=      5-min Rain = 0
KWA1 081655Z 33011KT 03/02 A303 RMK A01 T00330021  RH  092%=      5-min Rain = 0
KWA1 081656Z 34010KT 03/02 A303 RMK A01 T00330021  RH  092%=      5-min Rain = 0
KWA1 081657Z 34010KT 03/02 A303 RMK A01 T00330021  RH  092%=      5-min Rain = 0
KWA1 081658Z 34009KT 03/02 A303 RMK A01 T00330021  RH  092%=      5-min Rain = 0
KWA1 081659Z 34007KT 03/02 A303 RMK A01 T00340022  RH  092%=      5-min Rain = 0
KWA1 081700Z 33009KT 03/02 A303 RMK A01 T00340024  RH  093%=      5-min Rain = 0
KWA1 081701Z 34009KT 03/02 A303 RMK A01 T00340023  RH  092%=      5-min Rain = 0
KWA1 081702Z 34010KT 04/02 A303 RMK A01 T00350023  RH  092%=      5-min Rain = 0
KWA1 081703Z 35009KT 04/02 A303 RMK A01 T00350022  RH  092%=      5-min Rain = 0
KWA1 081704Z 34011KT 04/02 A303 RMK A01 T00350023  RH  092%=      5-min Rain = 0
KWA1 081705Z 33011KT 04/02 A303 RMK A01 T00350022  RH  091%=      5-min Rain = 0
KWA1 081706Z 33012KT 04/02 A303 RMK A01 T00350022  RH  091%=      5-min Rain = 0
KWA1 081707Z 34011KT 04/02 A303 RMK A01 T00350022  RH  091%=      5-min Rain = 0
KWA1 081708Z 35010KT 04/02 A303 RMK A01 T00350022  RH  091%=      5-min Rain = 0
KWA1 081709Z 35010KT 04/02 A303 RMK A01 T00350023  RH  092%=      5-min Rain = 0
KWA1 081710Z 33010KT 04/02 A303 RMK A01 T00350023  RH  092%=      5-min Rain = 0
KWA1 081711Z 34010KT 04/03 A303 RMK A01 T00360025  RH  092%=      5-min Rain = 0
KWA1 081712Z 33010KT 04/02 A303 RMK A01 T00360024  RH  092%=      5-min Rain = 0
KWA1 081713Z 33012KT 04/02 A303 RMK A01 T00360024  RH  092%=      5-min Rain = 0
KWA1 081714Z 33011KT 04/02 A303 RMK A01 T00350022  RH  091%=      5-min Rain = 0
KWA1 081715Z 34011KT 04/02 A303 RMK A01 T00350021  RH  091%=      5-min Rain = 0
KWA1 081716Z 35011KT 04/02 A303 RMK A01 T00350023  RH  091%=      5-min Rain = 0
KWA1 081717Z 34011KT 04/02 A303 RMK A01 T00360023  RH  092%=      5-min Rain = 0
KWA1 081718Z 34009KT 04/02 A303 RMK A01 T00360024  RH  092%=      5-min Rain = 0
KWA1 081719Z 34010KT 04/02 A303 RMK A01 T00360024  RH  092%=      5-min Rain = 0
KWA1 081720Z 33010KT 04/02 A303 RMK A01 T00360024  RH  091%=      5-min Rain = 0
KWA1 081721Z 33010KT 04/02 A303 RMK A01 T00360024  RH  091%=      5-min Rain = 0
KWA1 081722Z 34011KT 04/02 A303 RMK A01 T00370024  RH  091%=      5-min Rain = 0
KWA1 081723Z 33011KT 04/02 A303 RMK A01 T00370024  RH  091%=      5-min Rain = 0
KWA1 081724Z 34011KT 04/03 A303 RMK A01 T00380025  RH  091%=      5-min Rain = 0
KWA1 081725Z 34010KT 04/03 A303 RMK A01 T00380025  RH  091%=      5-min Rain = 0
KWA1 081726Z 34010KT 04/03 A303 RMK A01 T00390026  RH  091%=      5-min Rain = 0
KWA1 081727Z 34009KT 04/03 A303 RMK A01 T00390026  RH  091%=      5-min Rain = 0
KWA1 081728Z 34010KT 04/03 A303 RMK A01 T00400028  RH  092%=      5-min Rain = 0
KWA1 081729Z 34009KT 04/03 A303 RMK A01 T00400027  RH  091%=      5-min Rain = 0
KWA1 081730Z 33010KT 04/03 A303 RMK A01 T00410028  RH  091%=      5-min Rain = 0
KWA1 081731Z 34011KT 04/03 A303 RMK A01 T00410028  RH  091%=      5-min Rain = 0
KWA1 081732Z 32010KT 04/03 A303 RMK A01 T00410028  RH  091%=      5-min Rain = 0
KWA1 081733Z 33009KT 04/03 A303 RMK A01 T00410027  RH  091%=      5-min Rain = 0
KWA1 081734Z 33009KT 04/03 A303 RMK A01 T00420030  RH  092%=      5-min Rain = 0
KWA1 081735Z 33010KT 04/03 A3029 RMK A01 T00430031  RH  092%=      5-min Rain = 0
KWA1 081736Z 33011KT 04/03 A3029 RMK A01 T00430029  RH  091%=      5-min Rain = 0
KWA1 081737Z 34011KT 04/03 A3029 RMK A01 T00420029  RH  091%=      5-min Rain = 0
KWA1 081738Z 33011KT 04/03 A3029 RMK A01 T00420029  RH  091%=      5-min Rain = 0
KWA1 081739Z 34011KT 04/03 A3029 RMK A01 T00430029  RH  091%=      5-min Rain = 0
KWA1 081740Z 34013KT 04/03 A3029 RMK A01 T00430029  RH  091%=      5-min Rain = 0
KWA1 081741Z 34011KT 04/03 A3029 RMK A01 T00430028  RH  091%=      5-min Rain = 0
KWA1 081742Z 33011KT 04/03 A3029 RMK A01 T00420028  RH  091%=      5-min Rain = 0
KWA1 081743Z 33012KT 04/03 A3029 RMK A01 T00420029  RH  091%=      5-min Rain = 0
KWA1 081744Z 33013KT 04/03 A3029 RMK A01 T00420029  RH  091%=      5-min Rain = 0
KWA1 081745Z 33012KT 04/03 A3029 RMK A01 T00420029  RH  091%=      5-min Rain = 0
KWA1 081746Z 33011KT 04/03 A3029 RMK A01 T00420028  RH  091%=      5-min Rain = 0
KWA1 081747Z 34012KT 04/03 A3029 RMK A01 T00410026  RH  090%=      5-min Rain = 0
KWA1 081748Z 34010KT 04/03 A3029 RMK A01 T00410027  RH  090%=      5-min Rain = 0
KWA1 081749Z 34011KT 04/03 A3029 RMK A01 T00430031  RH  092%=      5-min Rain = 0
KWA1 081750Z 34014KT 04/03 A3029 RMK A01 T00440032  RH  092%=      5-min Rain = 0
KWA1 081751Z 34013KT 04/03 A3029 RMK A01 T00440031  RH  091%=      5-min Rain = 0
KWA1 081752Z 34013KT 04/03 A3029 RMK A01 T00430028  RH  090%=      5-min Rain = 0
KWA1 081753Z 34014KT 04/03 A3029 RMK A01 T00430028  RH  090%=      5-min Rain = 0
KWA1 081754Z 34011KT 04/03 A3029 RMK A01 T00430027  RH  090%=      5-min Rain = 0
KWA1 081755Z 34011KT 04/03 A3029 RMK A01 T00430027  RH  090%=      5-min Rain = 0
KWA1 081756Z 34010KT 04/03 A3029 RMK A01 T00430028  RH  090%=      5-min Rain = 0
KWA1 081757Z 34012KT 04/03 A3029 RMK A01 T00440030  RH  091%=      5-min Rain = 0
KWA1 081758Z 35012KT 04/03 A3029 RMK A01 T00440030  RH  090%=      5-min Rain = 0
KWA1 081759Z 34010KT 04/03 A3029 RMK A01 T00440030  RH  090%=      5-min Rain = 0
KWA1 081800Z 34013KT 05/03 A3029 RMK A01 T00450030  RH  090%=      5-min Rain = 0
KWA1 081801Z 35012KT 05/03 A3029 RMK A01 T00450029  RH  089%=      5-min Rain = 0
KWA1 081802Z 34012KT 05/03 A3028 RMK A01 T00450029  RH  089%=      5-min Rain = 0
KWA1 081803Z 34011KT 05/03 A3028 RMK A01 T00450029  RH  090%=      5-min Rain = 0
KWA1 081804Z 34011KT 05/03 A3028 RMK A01 T00460031  RH  090%=      5-min Rain = 0
KWA1 081805Z 34011KT 05/03 A3028 RMK A01 T00460031  RH  090%=      5-min Rain = 0
KWA1 081806Z 34011KT 05/03 A3028 RMK A01 T00460032  RH  091%=      5-min Rain = 0
KWA1 081807Z 34011KT 05/03 A3028 RMK A01 T00460031  RH  090%=      5-min Rain = 0
KWA1 081808Z 33010KT 05/03 A3028 RMK A01 T00460033  RH  091%=      5-min Rain = 0
KWA1 081809Z 33012KT 05/03 A3028 RMK A01 T00470033  RH  091%=      5-min Rain = 0
KWA1 081810Z 32012KT 05/03 A3028 RMK A01 T00460032  RH  090%=      5-min Rain = 0
KWA1 081811Z 32013KT 05/03 A3028 RMK A01 T00450030  RH  090%=      5-min Rain = 0
KWA1 081812Z 32011KT 04/03 A3028 RMK A01 T00440031  RH  091%=      5-min Rain = 0
KWA1 081813Z 32010KT 04/03 A3028 RMK A01 T00440031  RH  092%=      5-min Rain = 0
KWA1 081814Z 32009KT 04/03 A3028 RMK A01 T00440032  RH  092%=      5-min Rain = 0
KWA1 081815Z 32012KT 05/03 A3028 RMK A01 T00450033  RH  092%=      5-min Rain = 0
KWA1 081816Z 32010KT 04/03 A3028 RMK A01 T00440031  RH  091%=      5-min Rain = 0
KWA1 081817Z 31012KT 04/03 A3028 RMK A01 T00440031  RH  092%=      5-min Rain = 0
KWA1 081818Z 33011KT 04/03 A3028 RMK A01 T00440032  RH  092%=      5-min Rain = 0
KWA1 081819Z 34012KT 05/03 A3028 RMK A01 T00450031  RH  091%=      5-min Rain = 0
KWA1 081820Z 34013KT 04/03 A3028 RMK A01 T00440030  RH  090%=      5-min Rain = 0
KWA1 081821Z 34013KT 04/03 A3028 RMK A01 T00440030  RH  091%=      5-min Rain = 0
KWA1 081822Z 34013KT 04/03 A3028 RMK A01 T00440029  RH  090%=      5-min Rain = 0
KWA1 081823Z 33013KT 05/03 A3028 RMK A01 T00450029  RH  090%=      5-min Rain = 0
KWA1 081824Z 34012KT 05/03 A3028 RMK A01 T00450028  RH  089%=      5-min Rain = 0
KWA1 081825Z 33012KT 04/03 A3028 RMK A01 T00440026  RH  088%=      5-min Rain = 0
KWA1 081826Z 34012KT 04/03 A3028 RMK A01 T00440027  RH  089%=      5-min Rain = 0
KWA1 081827Z 34013KT 05/03 A3027 RMK A01 T00450029  RH  090%=      5-min Rain = 0
KWA1 081828Z 35011KT 05/03 A3027 RMK A01 T00450027  RH  088%=      5-min Rain = 0
KWA1 081829Z 35011KT 05/03 A3027 RMK A01 T00460029  RH  089%=      5-min Rain = 0
KWA1 081830Z 35011KT 05/03 A3027 RMK A01 T00460029  RH  089%=      5-min Rain = 0
KWA1 081831Z 34012KT 05/03 A3027 RMK A01 T00470031  RH  089%=      5-min Rain = 0
KWA1 081832Z 34011KT 05/03 A3027 RMK A01 T00480032  RH  089%=      5-min Rain = 0
KWA1 081833Z 34012KT 05/03 A3027 RMK A01 T00490032  RH  089%=      5-min Rain = 0
KWA1 081834Z 35011KT 05/03 A3027 RMK A01 T00480030  RH  088%=      5-min Rain = 0
KWA1 081835Z 35010KT 05/03 A3027 RMK A01 T00470029  RH  088%=      5-min Rain = 0
KWA1 081836Z 35009KT 05/03 A3027 RMK A01 T00480032  RH  090%=      5-min Rain = 0
KWA1 081837Z 34011KT 05/03 A3027 RMK A01 T00490034  RH  090%=      5-min Rain = 0
KWA1 081838Z 34012KT 05/03 A3027 RMK A01 T00480032  RH  089%=      5-min Rain = 0
KWA1 081839Z 33011KT 05/03 A3027 RMK A01 T00480032  RH  090%=      5-min Rain = 0
KWA1 081840Z 33013KT 05/03 A3027 RMK A01 T00470032  RH  090%=      5-min Rain = 0
KWA1 081841Z 32012KT 05/03 A3027 RMK A01 T00460030  RH  090%=      5-min Rain = 0
KWA1 081842Z 34014KT 05/03 A3027 RMK A01 T00450030  RH  090%=      5-min Rain = 0
KWA1 081843Z 34013KT 04/03 A3027 RMK A01 T00440029  RH  090%=      5-min Rain = 0
KWA1 081844Z 34013KT 04/03 A3027 RMK A01 T00440029  RH  090%=      5-min Rain = 0
KWA1 081845Z 33013KT 04/03 A3027 RMK A01 T00440028  RH  090%=      5-min Rain = 0
KWA1 081846Z 34013KT 04/03 A3027 RMK A01 T00430027  RH  090%=      5-min Rain = 0
KWA1 081847Z 34013KT 04/03 A3027 RMK A01 T00440028  RH  090%=      5-min Rain = 0
KWA1 081848Z 33010KT 04/03 A3027 RMK A01 T00440028  RH  090%=      5-min Rain = 0
KWA1 081849Z 33010KT 05/03 A3027 RMK A01 T00450031  RH  091%=      5-min Rain = 0
KWA1 081850Z 33010KT 05/03 A3027 RMK A01 T00460032  RH  091%=      5-min Rain = 0
KWA1 081851Z 33010KT 05/03 A3027 RMK A01 T00470032  RH  090%=      5-min Rain = 0
KWA1 081852Z 33013KT 05/03 A3027 RMK A01 T00460031  RH  089%=      5-min Rain = 0
KWA1 081853Z 34010KT 05/03 A3027 RMK A01 T00460030  RH  089%=      5-min Rain = 0
KWA1 081854Z 35010KT 05/03 A3027 RMK A01 T00470030  RH  089%=      5-min Rain = 0
KWA1 081855Z 35011KT 05/03 A3027 RMK A01 T00480031  RH  089%=      5-min Rain = 0
KWA1 081856Z 35012KT 05/03 A3027 RMK A01 T00480029  RH  088%=      5-min Rain = 0
KWA1 081857Z 35013KT 05/03 A3027 RMK A01 T00480029  RH  088%=      5-min Rain = 0
KWA1 081858Z 36012KT 05/03 A3027 RMK A01 T00480028  RH  087%=      5-min Rain = 0
KWA1 081859Z 34009KT 05/03 A3027 RMK A01 T00480031  RH  088%=      5-min Rain = 0
KWA1 081900Z 34012KT 05/03 A3026 RMK A01 T00490032  RH  089%=      5-min Rain = 0
KWA1 081901Z 34012KT 05/03 A3026 RMK A01 T00490029  RH  087%=      5-min Rain = 0
KWA1 081902Z 35013KT 05/03 A3026 RMK A01 T00480030  RH  088%=      5-min Rain = 0
KWA1 081903Z 34011KT 05/03 A3026 RMK A01 T00480030  RH  088%=      5-min Rain = 0
KWA1 081904Z 35012KT 05/03 A3026 RMK A01 T00480030  RH  088%=      5-min Rain = 0
KWA1 081905Z 34011KT 05/03 A3026 RMK A01 T00480030  RH  088%=      5-min Rain = 0
KWA1 081906Z 32011KT 05/03 A3026 RMK A01 T00480031  RH  089%=      5-min Rain = 0
KWA1 081907Z 33012KT 05/03 A3026 RMK A01 T00470031  RH  089%=      5-min Rain = 0
KWA1 081908Z 32011KT 05/03 A3026 RMK A01 T00460031  RH  090%=      5-min Rain = 0
KWA1 081909Z 33013KT 05/03 A3026 RMK A01 T00460031  RH  090%=      5-min Rain = 0
KWA1 081910Z 33012KT 05/03 A3026 RMK A01 T00450030  RH  090%=      5-min Rain = 0
KWA1 081911Z 34011KT 05/03 A3026 RMK A01 T00460031  RH  090%=      5-min Rain = 0
KWA1 081912Z 34013KT 05/03 A3026 RMK A01 T00460032  RH  091%=      5-min Rain = 0
KWA1 081913Z 34013KT 05/03 A3026 RMK A01 T00460029  RH  089%=      5-min Rain = 0
KWA1 081914Z 34012KT 05/03 A3026 RMK A01 T00450028  RH  089%=      5-min Rain = 0
KWA1 081915Z 34010KT 05/03 A3026 RMK A01 T00450028  RH  089%=      5-min Rain = 0
KWA1 081916Z 33011KT 05/03 A3026 RMK A01 T00460030  RH  090%=      5-min Rain = 0
KWA1 081917Z 33011KT 05/03 A3026 RMK A01 T00460029  RH  089%=      5-min Rain = 0
KWA1 081918Z 33012KT 05/03 A3026 RMK A01 T00460029  RH  089%=      5-min Rain = 0
KWA1 081919Z 34013KT 05/03 A3026 RMK A01 T00450027  RH  088%=      5-min Rain = 0
KWA1 081920Z 34013KT 05/03 A3026 RMK A01 T00450027  RH  088%=      5-min Rain = 0
KWA1 081921Z 34012KT 05/03 A3026 RMK A01 T00450027  RH  088%=      5-min Rain = 0
KWA1 081922Z 33013KT 05/03 A3026 RMK A01 T00450028  RH  089%=      5-min Rain = 0
KWA1 081923Z 33012KT 05/03 A3026 RMK A01 T00450028  RH  089%=      5-min Rain = 0
KWA1 081924Z 34012KT 05/03 A3026 RMK A01 T00450029  RH  089%=      5-min Rain = 0
KWA1 081925Z 34015KT 05/03 A3026 RMK A01 T00450027  RH  088%=      5-min Rain = 0
KWA1 081926Z 33014KT 04/03 A3026 RMK A01 T00440026  RH  088%=      5-min Rain = 0
KWA1 081927Z 33011KT 04/03 A3026 RMK A01 T00440025  RH  088%=      5-min Rain = 0
KWA1 081928Z 34013KT 04/03 A3026 RMK A01 T00440028  RH  089%=      5-min Rain = 0
KWA1 081929Z 33012KT 05/03 A3026 RMK A01 T00450029  RH  090%=      5-min Rain = 0
KWA1 081930Z 33013KT 05/03 A3026 RMK A01 T00450028  RH  089%=      5-min Rain = 0
KWA1 081931Z 34014KT 04/03 A3026 RMK A01 T00440027  RH  088%=      5-min Rain = 0
KWA1 081932Z 34013KT 04/03 A3026 RMK A01 T00440026  RH  088%=      5-min Rain = 0
KWA1 081933Z 33012KT 04/03 A3026 RMK A01 T00440026  RH  088%=      5-min Rain = 0
KWA1 081934Z 34012KT 05/03 A3026 RMK A01 T00450028  RH  089%=      5-min Rain = 0
KWA1 081935Z 34011KT 05/03 A3026 RMK A01 T00450027  RH  088%=      5-min Rain = 0
KWA1 081936Z 34012KT 05/03 A3026 RMK A01 T00450028  RH  089%=      5-min Rain = 0
KWA1 081937Z 34013KT 05/03 A3026 RMK A01 T00450028  RH  088%=      5-min Rain = 0
KWA1 081938Z 34014KT 05/03 A3026 RMK A01 T00450026  RH  088%=      5-min Rain = 0
KWA1 081939Z 34013KT 05/03 A3026 RMK A01 T00450025  RH  087%=      5-min Rain = 0
KWA1 081940Z 33011KT 05/03 A3026 RMK A01 T00450028  RH  089%=      5-min Rain = 0
KWA1 081941Z 33010KT 05/03 A3026 RMK A01 T00460031  RH  090%=      5-min Rain = 0
KWA1 081942Z 33011KT 05/03 A3026 RMK A01 T00470032  RH  090%=      5-min Rain = 0
KWA1 081943Z 34011KT 05/03 A3026 RMK A01 T00470030  RH  089%=      5-min Rain = 0
KWA1 081944Z 33010KT 05/03 A3026 RMK A01 T00460029  RH  088%=      5-min Rain = 0
KWA1 081945Z 33012KT 05/03 A3026 RMK A01 T00460029  RH  088%=      5-min Rain = 0
KWA1 081946Z 33012KT 05/03 A3026 RMK A01 T00460027  RH  087%=      5-min Rain = 0
KWA1 081947Z 34012KT 05/03 A3026 RMK A01 T00450026  RH  087%=      5-min Rain = 0
KWA1 081948Z 33010KT 05/03 A3026 RMK A01 T00450026  RH  088%=      5-min Rain = 0
KWA1 081949Z 33010KT 05/03 A3026 RMK A01 T00450026  RH  088%=      5-min Rain = 0
KWA1 081950Z 34011KT 05/03 A3026 RMK A01 T00450028  RH  088%=      5-min Rain = 0
KWA1 081951Z 34012KT 05/03 A3026 RMK A01 T00450027  RH  088%=      5-min Rain = 0
KWA1 081952Z 33009KT 05/03 A3026 RMK A01 T00450026  RH  088%=      5-min Rain = 0
KWA1 081953Z 33011KT 05/03 A3026 RMK A01 T00450027  RH  088%=      5-min Rain = 0
KWA1 081954Z 33010KT 05/03 A3026 RMK A01 T00450025  RH  087%=      5-min Rain = 0
KWA1 081955Z 32011KT 04/03 A3026 RMK A01 T00440026  RH  088%=      5-min Rain = 0
KWA1 081956Z 32013KT 04/03 A3026 RMK A01 T00440026  RH  088%=      5-min Rain = 0
KWA1 081957Z 32011KT 04/03 A3026 RMK A01 T00440025  RH  088%=      5-min Rain = 0
KWA1 081958Z 32011KT 04/03 A3026 RMK A01 T00430026  RH  089%=      5-min Rain = 0
KWA1 081959Z 32013KT 04/03 A3026 RMK A01 T00430026  RH  089%=      5-min Rain = 0
KWA1 082000Z 32011KT 04/03 A3026 RMK A01 T00430026  RH  088%=      5-min Rain = 0
KWA1 082001Z 33011KT 04/03 A3026 RMK A01 T00430026  RH  088%=      5-min Rain = 0
KWA1 082002Z 33009KT 04/03 A3026 RMK A01 T00430026  RH  089%=      5-min Rain = 0
KWA1 082003Z 31010KT 04/03 A3026 RMK A01 T00440028  RH  090%=      5-min Rain = 0
KWA1 082004Z 31010KT 04/03 A3026 RMK A01 T00430026  RH  089%=      5-min Rain = 0
KWA1 082005Z 32010KT 04/03 A3026 RMK A01 T00430026  RH  089%=      5-min Rain = 0
KWA1 082006Z 32009KT 04/03 A3026 RMK A01 T00430028  RH  090%=      5-min Rain = 0
KWA1 082007Z 33009KT 04/03 A3026 RMK A01 T00440030  RH  090%=      5-min Rain = 0
KWA1 082008Z 33010KT 04/03 A3026 RMK A01 T00440029  RH  090%=      5-min Rain = 0
KWA1 082009Z 33011KT 04/03 A3026 RMK A01 T00440026  RH  088%=      5-min Rain = 0
KWA1 082010Z 33011KT 04/03 A3026 RMK A01 T00440025  RH  088%=      5-min Rain = 0
KWA1 082011Z 32013KT 04/03 A3026 RMK A01 T00440026  RH  088%=      5-min Rain = 0
KWA1 082012Z 32013KT 04/02 A3026 RMK A01 T00430024  RH  087%=      5-min Rain = 0
KWA1 082013Z 32010KT 04/02 A3026 RMK A01 T00430024  RH  088%=      5-min Rain = 0
KWA1 082014Z 32010KT 04/03 A3026 RMK A01 T00430026  RH  089%=      5-min Rain = 0
KWA1 082015Z 32013KT 04/03 A3026 RMK A01 T00430026  RH  089%=      5-min Rain = 0
KWA1 082016Z 32011KT 04/02 A3026 RMK A01 T00420024  RH  088%=      5-min Rain = 0
KWA1 082017Z 33011KT 04/03 A3026 RMK A01 T00420025  RH  089%=      5-min Rain = 0
KWA1 082018Z 33011KT 04/03 A3026 RMK A01 T00420025  RH  089%=      5-min Rain = 0
KWA1 082019Z 33013KT 04/03 A3026 RMK A01 T00420025  RH  089%=      5-min Rain = 0
KWA1 082020Z 33013KT 04/02 A3026 RMK A01 T00420023  RH  088%=      5-min Rain = 0
KWA1 082021Z 33013KT 04/02 A3026 RMK A01 T00410022  RH  087%=      5-min Rain = 0
KWA1 082022Z 33013KT 04/02 A3026 RMK A01 T00420023  RH  088%=      5-min Rain = 0
KWA1 082023Z 33015KT 04/02 A3026 RMK A01 T00420023  RH  088%=      5-min Rain = 0
KWA1 082024Z 33014KT 04/02 A3026 RMK A01 T00420022  RH  087%=      5-min Rain = 0
KWA1 082025Z 33014KT 04/02 A3026 RMK A01 T00410022  RH  087%=      5-min Rain = 0
KWA1 082026Z 32012KT 04/02 A3026 RMK A01 T00410022  RH  087%=      5-min Rain = 0
KWA1 082027Z 32011KT 04/02 A3026 RMK A01 T00420023  RH  088%=      5-min Rain = 0
KWA1 082028Z 33013KT 04/02 A3026 RMK A01 T00420024  RH  088%=      5-min Rain = 0
KWA1 082029Z 32011KT 04/02 A3026 RMK A01 T00420023  RH  087%=      5-min Rain = 0
KWA1 082030Z 33011KT 04/03 A3026 RMK A01 T00420026  RH  089%=      5-min Rain = 0
KWA1 082031Z 33013KT 04/03 A3026 RMK A01 T00430025  RH  088%=      5-min Rain = 0
KWA1 082032Z 33011KT 04/02 A3026 RMK A01 T00420023  RH  087%=      5-min Rain = 0
KWA1 082033Z 33012KT 04/02 A3026 RMK A01 T00420024  RH  088%=      5-min Rain = 0
KWA1 082034Z 33012KT 04/02 A3026 RMK A01 T00420024  RH  088%=      5-min Rain = 0
KWA1 082035Z 33013KT 04/02 A3026 RMK A01 T00420023  RH  087%=      5-min Rain = 0
KWA1 082036Z 33013KT 04/02 A3026 RMK A01 T00420023  RH  087%=      5-min Rain = 0
KWA1 082037Z 33014KT 04/02 A3026 RMK A01 T00420023  RH  087%=      5-min Rain = 0
KWA1 082038Z 33013KT 04/02 A3026 RMK A01 T00410022  RH  087%=      5-min Rain = 0
KWA1 082039Z 33013KT 04/02 A3026 RMK A01 T00410022  RH  087%=      5-min Rain = 0
KWA1 082040Z 33011KT 04/02 A3026 RMK A01 T00410022  RH  087%=      5-min Rain = 0
KWA1 082041Z 33010KT 04/02 A3026 RMK A01 T00420022  RH  087%=      5-min Rain = 0
KWA1 082042Z 33010KT 04/03 A3026 RMK A01 T00430025  RH  089%=      5-min Rain = 0
KWA1 082043Z 33011KT 04/03 A3026 RMK A01 T00430025  RH  088%=      5-min Rain = 0
KWA1 082044Z 34011KT 04/03 A3026 RMK A01 T00430026  RH  088%=      5-min Rain = 0
KWA1 082045Z 34012KT 04/03 A3026 RMK A01 T00440026  RH  088%=      5-min Rain = 0
KWA1 082046Z 33012KT 04/03 A3026 RMK A01 T00440025  RH  088%=      5-min Rain = 0
KWA1 082047Z 34013KT 04/02 A3026 RMK A01 T00430023  RH  087%=      5-min Rain = 0
KWA1 082048Z 34012KT 04/02 A3026 RMK A01 T00430024  RH  088%=      5-min Rain = 0
KWA1 082049Z 33013KT 04/03 A3026 RMK A01 T00430025  RH  088%=      5-min Rain = 0
KWA1 082050Z 33011KT 04/02 A3026 RMK A01 T00430023  RH  087%=      5-min Rain = 0
KWA1 082051Z 33011KT 04/02 A3026 RMK A01 T00430024  RH  087%=      5-min Rain = 0
KWA1 082052Z 34011KT 04/03 A3026 RMK A01 T00430025  RH  088%=      5-min Rain = 0
KWA1 082053Z 34013KT 04/02 A3026 RMK A01 T00430024  RH  087%=      5-min Rain = 0
KWA1 082054Z 34013KT 04/02 A3026 RMK A01 T00430022  RH  086%=      5-min Rain = 0
KWA1 082055Z 34014KT 04/02 A3026 RMK A01 T00430022  RH  087%=      5-min Rain = 0
KWA1 082056Z 34013KT 04/02 A3026 RMK A01 T00430023  RH  087%=      5-min Rain = 0
KWA1 082057Z 33013KT 04/02 A3026 RMK A01 T00430023  RH  087%=      5-min Rain = 0
KWA1 082058Z 34011KT 04/02 A3026 RMK A01 T00430023  RH  087%=      5-min Rain = 0
KWA1 082059Z 33010KT 04/03 A3026 RMK A01 T00430025  RH  088%=      5-min Rain = 0
KWA1 082100Z 34009KT 04/03 A3026 RMK A01 T00430027  RH  089%=      5-min Rain = 0
KWA1 082101Z 34012KT 04/03 A3026 RMK A01 T00440028  RH  089%=      5-min Rain = 0
KWA1 082102Z 33012KT 04/03 A3026 RMK A01 T00440026  RH  088%=      5-min Rain = 0
KWA1 082103Z 34013KT 04/03 A3026 RMK A01 T00440025  RH  088%=      5-min Rain = 0
KWA1 082104Z 33013KT 04/02 A3026 RMK A01 T00430024  RH  087%=      5-min Rain = 0
KWA1 082105Z 34014KT 04/02 A3026 RMK A01 T00430023  RH  087%=      5-min Rain = 0
KWA1 082106Z 34012KT 04/02 A3026 RMK A01 T00430023  RH  087%=      5-min Rain = 0
KWA1 082107Z 33013KT 04/03 A3026 RMK A01 T00430025  RH  088%=      5-min Rain = 0
KWA1 082108Z 33013KT 04/02 A3026 RMK A01 T00420023  RH  087%=      5-min Rain = 0
KWA1 082109Z 33012KT 04/02 A3026 RMK A01 T00420022  RH  087%=      5-min Rain = 0
KWA1 082110Z 34011KT 04/02 A3026 RMK A01 T00420024  RH  088%=      5-min Rain = 0
KWA1 082111Z 34014KT 04/02 A3026 RMK A01 T00420024  RH  088%=      5-min Rain = 0
KWA1 082112Z 34014KT 04/02 A3026 RMK A01 T00420024  RH  088%=      5-min Rain = 0
KWA1 082113Z 34015KT 04/02 A3026 RMK A01 T00420022  RH  087%=      5-min Rain = 0
KWA1 082114Z 33013KT 04/02 A3026 RMK A01 T00420022  RH  087%=      5-min Rain = 0
KWA1 082115Z 34014KT 04/02 A3026 RMK A01 T00420023  RH  087%=      5-min Rain = 0
KWA1 082116Z 34013KT 04/02 A3026 RMK A01 T00420022  RH  087%=      5-min Rain = 0
KWA1 082117Z 34011KT 04/02 A3026 RMK A01 T00410022  RH  087%=      5-min Rain = 0
KWA1 082118Z 34009KT 04/02 A3026 RMK A01 T00410023  RH  088%=      5-min Rain = 0
KWA1 082119Z 33011KT 04/03 A3026 RMK A01 T00420025  RH  089%=      5-min Rain = 0
KWA1 082120Z 33010KT 04/02 A3026 RMK A01 T00420024  RH  088%=      5-min Rain = 0
KWA1 082121Z 34011KT 04/02 A3027 RMK A01 T00420024  RH  088%=      5-min Rain = 0
KWA1 082122Z 33011KT 04/03 A3027 RMK A01 T00420025  RH  088%=      5-min Rain = 0
KWA1 082123Z 34012KT 04/03 A3027 RMK A01 T00420025  RH  088%=      5-min Rain = 0
KWA1 082124Z 33011KT 04/02 A3027 RMK A01 T00420024  RH  088%=      5-min Rain = 0
KWA1 082125Z 33012KT 04/02 A3027 RMK A01 T00410024  RH  088%=      5-min Rain = 0
KWA1 082126Z 33011KT 04/02 A3027 RMK A01 T00410023  RH  088%=      5-min Rain = 0
KWA1 082127Z 33011KT 04/02 A3027 RMK A01 T00410023  RH  088%=      5-min Rain = 0
KWA1 082128Z 33011KT 04/02 A3027 RMK A01 T00410023  RH  088%=      5-min Rain = 0
KWA1 082129Z 34010KT 04/02 A3027 RMK A01 T00410024  RH  089%=      5-min Rain = 0
KWA1 082130Z 33012KT 04/02 A3027 RMK A01 T00410024  RH  089%=      5-min Rain = 0
KWA1 082131Z 34011KT 04/02 A3027 RMK A01 T00400021  RH  087%=      5-min Rain = 0
KWA1 082132Z 34011KT 04/02 A3027 RMK A01 T00400023  RH  089%=      5-min Rain = 0
KWA1 082133Z 34011KT 04/02 A3027 RMK A01 T00410024  RH  089%=      5-min Rain = 0
KWA1 082134Z 33011KT 04/02 A3027 RMK A01 T00410023  RH  088%=      5-min Rain = 0
KWA1 082135Z 34013KT 04/02 A3027 RMK A01 T00410021  RH  087%=      5-min Rain = 0
KWA1 082136Z 34011KT 04/02 A3027 RMK A01 T00400021  RH  087%=      5-min Rain = 0
KWA1 082137Z 34010KT 04/02 A3027 RMK A01 T00410023  RH  088%=      5-min Rain = 0
KWA1 082138Z 34011KT 04/02 A3027 RMK A01 T00410024  RH  089%=      5-min Rain = 0
KWA1 082139Z 34011KT 04/03 A3027 RMK A01 T00410025  RH  089%=      5-min Rain = 0
KWA1 082140Z 34012KT 04/02 A3027 RMK A01 T00410023  RH  088%=      5-min Rain = 0
KWA1 082141Z 34013KT 04/02 A3027 RMK A01 T00410022  RH  088%=      5-min Rain = 0
KWA1 082142Z 33012KT 04/02 A3027 RMK A01 T00410022  RH  088%=      5-min Rain = 0
KWA1 082143Z 34012KT 04/02 A3027 RMK A01 T00410023  RH  088%=      5-min Rain = 0
KWA1 082144Z 33013KT 04/02 A3027 RMK A01 T00410022  RH  088%=      5-min Rain = 0
KWA1 082145Z 33011KT 04/02 A3027 RMK A01 T00410021  RH  087%=      5-min Rain = 0
KWA1 082146Z 33012KT 04/02 A3027 RMK A01 T00410022  RH  088%=      5-min Rain = 0
KWA1 082147Z 34012KT 04/02 A3027 RMK A01 T00410022  RH  088%=      5-min Rain = 0
KWA1 082148Z 34012KT 04/02 A3027 RMK A01 T00410023  RH  088%=      5-min Rain = 0
KWA1 082149Z 34011KT 04/02 A3027 RMK A01 T00410023  RH  088%=      5-min Rain = 0
KWA1 082150Z 34011KT 04/02 A3027 RMK A01 T00410022  RH  088%=      5-min Rain = 0
KWA1 082151Z 33010KT 04/02 A3027 RMK A01 T00400022  RH  088%=      5-min Rain = 0
KWA1 082152Z 33009KT 04/02 A3027 RMK A01 T00400023  RH  088%=      5-min Rain = 0
KWA1 082153Z 33011KT 04/02 A3027 RMK A01 T00410024  RH  089%=      5-min Rain = 0
KWA1 082154Z 33011KT 04/02 A3027 RMK A01 T00410024  RH  089%=      5-min Rain = 0
KWA1 082155Z 33011KT 04/02 A3027 RMK A01 T00400022  RH  088%=      5-min Rain = 0
KWA1 082156Z 33012KT 04/02 A3027 RMK A01 T00400022  RH  088%=      5-min Rain = 0
KWA1 082157Z 33009KT 04/02 A3027 RMK A01 T00400023  RH  089%=      5-min Rain = 0
KWA1 082158Z 33011KT 04/02 A3027 RMK A01 T00400024  RH  089%=      5-min Rain = 0
KWA1 082159Z 32012KT 04/02 A3027 RMK A01 T00400023  RH  089%=      5-min Rain = 0
KWA1 082200Z 33012KT 04/02 A3027 RMK A01 T00400022  RH  088%=      5-min Rain = 0
KWA1 082201Z 33012KT 04/02 A3027 RMK A01 T00400022  RH  088%=      5-min Rain = 0
KWA1 082202Z 33011KT 04/02 A3027 RMK A01 T00400022  RH  088%=      5-min Rain = 0
KWA1 082203Z 33012KT 04/02 A3027 RMK A01 T00400022  RH  088%=      5-min Rain = 0
KWA1 082204Z 33011KT 04/02 A3027 RMK A01 T00390022  RH  088%=      5-min Rain = 0
KWA1 082205Z 34011KT 04/02 A3027 RMK A01 T00390022  RH  089%=      5-min Rain = 0
KWA1 082206Z 34012KT 04/02 A3027 RMK A01 T00400023  RH  089%=      5-min Rain = 0
KWA1 082207Z 34013KT 04/02 A3027 RMK A01 T00400021  RH  088%=      5-min Rain = 0
KWA1 082208Z 34013KT 04/02 A3027 RMK A01 T00400021  RH  088%=      5-min Rain = 0
KWA1 082209Z 33011KT 04/02 A3027 RMK A01 T00400021  RH  087%=      5-min Rain = 0
KWA1 082210Z 33012KT 04/02 A3027 RMK A01 T00400021  RH  087%=      5-min Rain = 0
KWA1 082211Z 33012KT 04/02 A3027 RMK A01 T00400020  RH  087%=      5-min Rain = 0
KWA1 082212Z 34013KT 04/02 A3027 RMK A01 T00400020  RH  087%=      5-min Rain = 0
KWA1 082213Z 33011KT 04/02 A3027 RMK A01 T00400019  RH  087%=      5-min Rain = 0
KWA1 082214Z 33010KT 04/02 A3027 RMK A01 T00400021  RH  087%=      5-min Rain = 0
KWA1 082215Z 33011KT 04/02 A3027 RMK A01 T00400021  RH  088%=      5-min Rain = 0
KWA1 082216Z 33011KT 04/02 A3027 RMK A01 T00400020  RH  087%=      5-min Rain = 0
KWA1 082217Z 33011KT 04/02 A3027 RMK A01 T00400021  RH  088%=      5-min Rain = 0
KWA1 082218Z 33009KT 04/02 A3027 RMK A01 T00400021  RH  087%=      5-min Rain = 0
KWA1 082219Z 34009KT 04/02 A3027 RMK A01 T00400022  RH  088%=      5-min Rain = 0
KWA1 082220Z 34010KT 04/02 A3027 RMK A01 T00400022  RH  088%=      5-min Rain = 0
KWA1 082221Z 34009KT 04/02 A3027 RMK A01 T00400021  RH  088%=      5-min Rain = 0
KWA1 082222Z 34010KT 04/02 A3027 RMK A01 T00400021  RH  088%=      5-min Rain = 0
KWA1 082223Z 34011KT 04/02 A3027 RMK A01 T00400021  RH  088%=      5-min Rain = 0
KWA1 082224Z 33012KT 04/02 A3027 RMK A01 T00400022  RH  088%=      5-min Rain = 0
KWA1 082225Z 34011KT 04/02 A3027 RMK A01 T00400021  RH  088%=      5-min Rain = 0
KWA1 082226Z 34011KT 04/02 A3027 RMK A01 T00400022  RH  088%=      5-min Rain = 0
KWA1 082227Z 34011KT 04/02 A3027 RMK A01 T00400021  RH  088%=      5-min Rain = 0
KWA1 082228Z 33012KT 04/02 A3027 RMK A01 T00400020  RH  087%=      5-min Rain = 0
KWA1 082229Z 34011KT 04/02 A3027 RMK A01 T00390020  RH  087%=      5-min Rain = 0
KWA1 082230Z 34010KT 04/02 A3027 RMK A01 T00400021  RH  088%=      5-min Rain = 0
KWA1 082231Z 35010KT 04/02 A3027 RMK A01 T00400022  RH  088%=      5-min Rain = 0
KWA1 082232Z 35011KT 04/02 A3027 RMK A01 T00400022  RH  088%=      5-min Rain = 0
KWA1 082233Z 35011KT 04/02 A3027 RMK A01 T00390018  RH  086%=      5-min Rain = 0
KWA1 082234Z 35011KT 04/02 A3027 RMK A01 T00390018  RH  086%=      5-min Rain = 0
KWA1 082235Z 34011KT 04/02 A3027 RMK A01 T00390019  RH  086%=      5-min Rain = 0
KWA1 082236Z 35012KT 04/02 A3027 RMK A01 T00390019  RH  086%=      5-min Rain = 0
KWA1 082237Z 35010KT 04/02 A3027 RMK A01 T00390019  RH  086%=      5-min Rain = 0
KWA1 082238Z 34012KT 04/02 A3027 RMK A01 T00390019  RH  087%=      5-min Rain = 0
KWA1 082239Z 34011KT 04/02 A3027 RMK A01 T00400019  RH  086%=      5-min Rain = 0
KWA1 082240Z 34010KT 04/02 A3027 RMK A01 T00390018  RH  086%=      5-min Rain = 0
KWA1 082241Z 34009KT 04/02 A3027 RMK A01 T00390018  RH  086%=      5-min Rain = 0
KWA1 082242Z 34010KT 04/02 A3027 RMK A01 T00390018  RH  086%=      5-min Rain = 0
KWA1 082243Z 34009KT 04/02 A3027 RMK A01 T00390018  RH  086%=      5-min Rain = 0
KWA1 082244Z 34009KT 04/02 A3027 RMK A01 T00390018  RH  086%=      5-min Rain = 0
KWA1 082245Z 34009KT 04/02 A3027 RMK A01 T00390019  RH  087%=      5-min Rain = 0
KWA1 082246Z 33008KT 04/02 A3027 RMK A01 T00390019  RH  087%=      5-min Rain = 0
KWA1 082247Z 34008KT 04/02 A3027 RMK A01 T00390020  RH  087%=      5-min Rain = 0
KWA1 082248Z 34008KT 04/02 A3027 RMK A01 T00390021  RH  088%=      5-min Rain = 0
KWA1 082249Z 33009KT 04/02 A3027 RMK A01 T00400023  RH  088%=      5-min Rain = 0
KWA1 082250Z 34010KT 04/02 A3027 RMK A01 T00390020  RH  087%=      5-min Rain = 0
KWA1 082251Z 33008KT 04/02 A3027 RMK A01 T00390019  RH  087%=      5-min Rain = 0
KWA1 082252Z 33008KT 04/02 A3027 RMK A01 T00400021  RH  087%=      5-min Rain = 0
KWA1 082253Z 33009KT 04/02 A3027 RMK A01 T00390020  RH  087%=      5-min Rain = 0
KWA1 082254Z 32008KT 04/02 A3027 RMK A01 T00390020  RH  087%=      5-min Rain = 0
KWA1 082255Z 32008KT 04/02 A3027 RMK A01 T00390020  RH  087%=      5-min Rain = 0
KWA1 082256Z 33007KT 04/02 A3027 RMK A01 T00390020  RH  088%=      5-min Rain = 0
KWA1 082257Z 32008KT 04/02 A3027 RMK A01 T00390021  RH  088%=      5-min Rain = 0
KWA1 082258Z 32007KT 04/02 A3027 RMK A01 T00390021  RH  088%=      5-min Rain = 0
KWA1 082259Z 33008KT 04/02 A3027 RMK A01 T00390020  RH  088%=      5-min Rain = 0
KWA1 082300Z 33009KT 04/02 A3027 RMK A01 T00390020  RH  088%=      5-min Rain = 0
KWA1 082301Z 33008KT 04/02 A3027 RMK A01 T00390020  RH  087%=      5-min Rain = 0
KWA1 082302Z 34010KT 04/02 A3027 RMK A01 T00390020  RH  087%=      5-min Rain = 0
KWA1 082303Z 34009KT 04/02 A3027 RMK A01 T00390018  RH  086%=      5-min Rain = 0
KWA1 082304Z 34009KT 04/02 A3027 RMK A01 T00390019  RH  087%=      5-min Rain = 0
KWA1 082305Z 34008KT 04/02 A3027 RMK A01 T00390020  RH  087%=      5-min Rain = 0
KWA1 082306Z 34008KT 04/02 A3028 RMK A01 T00390019  RH  087%=      5-min Rain = 0
KWA1 082307Z 33008KT 04/02 A3028 RMK A01 T00390019  RH  087%=      5-min Rain = 0
KWA1 082308Z 32008KT 04/02 A3028 RMK A01 T00390019  RH  087%=      5-min Rain = 0
KWA1 082309Z 33007KT 04/02 A3028 RMK A01 T00390019  RH  087%=      5-min Rain = 0
KWA1 082310Z 33009KT 04/02 A3028 RMK A01 T00390020  RH  087%=      5-min Rain = 0
KWA1 082311Z 33009KT 04/02 A3028 RMK A01 T00390019  RH  087%=      5-min Rain = 0
KWA1 082312Z 33009KT 04/02 A3028 RMK A01 T00390018  RH  086%=      5-min Rain = 0
KWA1 082313Z 34009KT 04/02 A3028 RMK A01 T00390019  RH  086%=      5-min Rain = 0
KWA1 082314Z 34008KT 04/02 A3027 RMK A01 T00390018  RH  086%=      5-min Rain = 0
KWA1 082315Z 35010KT 04/02 A3027 RMK A01 T00380018  RH  087%=      5-min Rain = 0
KWA1 082316Z 34008KT 04/02 A3027 RMK A01 T00390018  RH  087%=      5-min Rain = 0
KWA1 082317Z 34009KT 04/02 A3027 RMK A01 T00390018  RH  087%=      5-min Rain = 0
KWA1 082318Z 34009KT 04/02 A3027 RMK A01 T00390018  RH  087%=      5-min Rain = 0
KWA1 082319Z 34009KT 04/02 A3027 RMK A01 T00380016  RH  086%=      5-min Rain = 0
KWA1 082320Z 33009KT 04/02 A3027 RMK A01 T00380016  RH  086%=      5-min Rain = 0
KWA1 082321Z 34008KT 04/02 A3027 RMK A01 T00380017  RH  086%=      5-min Rain = 0
KWA1 082322Z 34010KT 04/02 A3027 RMK A01 T00380018  RH  087%=      5-min Rain = 0
KWA1 082323Z 34008KT 04/02 A3027 RMK A01 T00370017  RH  087%=      5-min Rain = 0
KWA1 082324Z 33008KT 04/02 A3027 RMK A01 T00380019  RH  087%=      5-min Rain = 0
KWA1 082325Z 34008KT 04/02 A3028 RMK A01 T00380018  RH  087%=      5-min Rain = 0
KWA1 082326Z 34009KT 04/02 A3028 RMK A01 T00380018  RH  087%=      5-min Rain = 0
KWA1 082327Z 34008KT 04/02 A3028 RMK A01 T00370018  RH  087%=      5-min Rain = 0
KWA1 082328Z 33007KT 04/02 A3028 RMK A01 T00380018  RH  087%=      5-min Rain = 0
KWA1 082329Z 33007KT 04/02 A3028 RMK A01 T00380018  RH  087%=      5-min Rain = 0
KWA1 082330Z 33007KT 04/02 A3028 RMK A01 T00380019  RH  088%=      5-min Rain = 0
KWA1 082331Z 33006KT 04/02 A3028 RMK A01 T00380020  RH  088%=      5-min Rain = 0
KWA1 082332Z 33007KT 04/02 A3028 RMK A01 T00380021  RH  089%=      5-min Rain = 0
KWA1 082333Z 33008KT 04/02 A3028 RMK A01 T00380020  RH  088%=      5-min Rain = 0
KWA1 082334Z 33007KT 04/02 A3028 RMK A01 T00380019  RH  088%=      5-min Rain = 0
KWA1 082335Z 32007KT 04/02 A3028 RMK A01 T00380018  RH  087%=      5-min Rain = 0
KWA1 082336Z 33008KT 04/02 A3028 RMK A01 T00380018  RH  087%=      5-min Rain = 0
KWA1 082337Z 33007KT 04/02 A3028 RMK A01 T00380018  RH  087%=      5-min Rain = 0
KWA1 082338Z 33008KT 04/02 A3028 RMK A01 T00380018  RH  087%=      5-min Rain = 0
KWA1 082339Z 33008KT 04/02 A3028 RMK A01 T00380018  RH  087%=      5-min Rain = 0
KWA1 082340Z 33006KT 04/02 A3028 RMK A01 T00370019  RH  088%=      5-min Rain = 0
KWA1 082341Z 32006KT 04/02 A3028 RMK A01 T00380020  RH  088%=      5-min Rain = 0
KWA1 082342Z 33005KT 04/02 A3028 RMK A01 T00370019  RH  088%=      5-min Rain = 0
KWA1 082343Z 33006KT 04/02 A3028 RMK A01 T00380021  RH  089%=      5-min Rain = 0
KWA1 082344Z 33006KT 04/02 A3028 RMK A01 T00380021  RH  089%=      5-min Rain = 0
KWA1 082345Z 33007KT 04/02 A3028 RMK A01 T00380021  RH  089%=      5-min Rain = 0
KWA1 082346Z 33008KT 04/02 A3028 RMK A01 T00390022  RH  089%=      5-min Rain = 0
KWA1 082347Z 34008KT 04/02 A3028 RMK A01 T00380020  RH  088%=      5-min Rain = 0
KWA1 082348Z 33007KT 04/02 A3028 RMK A01 T00380020  RH  088%=      5-min Rain = 0
KWA1 082349Z 33007KT 04/02 A3028 RMK A01 T00380020  RH  088%=      5-min Rain = 0
KWA1 082350Z 33008KT 04/02 A3029 RMK A01 T00380020  RH  088%=      5-min Rain = 0
KWA1 082351Z 33008KT 04/02 A3029 RMK A01 T00380019  RH  087%=      5-min Rain = 0
KWA1 082352Z 33009KT 04/02 A3029 RMK A01 T00380018  RH  087%=      5-min Rain = 0
KWA1 082353Z 33008KT 04/02 A3029 RMK A01 T00380018  RH  087%=      5-min Rain = 0
KWA1 082354Z 33008KT 04/02 A3029 RMK A01 T00380019  RH  087%=      5-min Rain = 0
KWA1 082355Z 33009KT 04/02 A3029 RMK A01 T00380019  RH  088%=      5-min Rain = 0
KWA1 082356Z 33008KT 04/02 A3029 RMK A01 T00380019  RH  087%=      5-min Rain = 0
KWA1 082357Z 33009KT 04/02 A3029 RMK A01 T00380018  RH  087%=      5-min Rain = 0
KWA1 082358Z 33009KT 04/02 A3029 RMK A01 T00380018  RH  087%=      5-min Rain = 0
KWA1 082359Z 33008KT 04/02 A3029 RMK A01 T00380018  RH  087%=      5-min Rain = 0
KWA1 090000Z 33008KT 04/02 A3029 RMK A01 T00380019  RH  087%=      5-min Rain = 0
KWA1 090001Z 33008KT 04/02 A3029 RMK A01 T00380019  RH  087%=      5-min Rain = 0
KWA1 090002Z 33006KT 04/02 A3029 RMK A01 T00380019  RH  087%=      5-min Rain = 0
KWA1 090003Z 33007KT 04/02 A3029 RMK A01 T00380020  RH  088%=      5-min Rain = 0
KWA1 090004Z 33008KT 04/02 A3029 RMK A01 T00380019  RH  088%=      5-min Rain = 0
KWA1 090005Z 33007KT 04/02 A3029 RMK A01 T00380019  RH  087%=      5-min Rain = 0
KWA1 090006Z 33007KT 04/02 A3029 RMK A01 T00380019  RH  087%=      5-min Rain = 0
KWA1 090007Z 34006KT 04/02 A3029 RMK A01 T00380020  RH  088%=      5-min Rain = 0
KWA1 090008Z 34007KT 04/02 A3029 RMK A01 T00380020  RH  088%=      5-min Rain = 0
KWA1 090009Z 33007KT 04/02 A3029 RMK A01 T00380021  RH  088%=      5-min Rain = 0
KWA1 090010Z 33008KT 04/02 A3029 RMK A01 T00380021  RH  089%=      5-min Rain = 0
KWA1 090011Z 34007KT 04/02 A303 RMK A01 T00380021  RH  088%=      5-min Rain = 0
KWA1 090012Z 33006KT 04/02 A303 RMK A01 T00380021  RH  089%=      5-min Rain = 0
KWA1 090013Z 33008KT 04/02 A3029 RMK A01 T00390022  RH  089%=      5-min Rain = 0
KWA1 090014Z 33008KT 04/02 A3029 RMK A01 T00380021  RH  088%=      5-min Rain = 0
KWA1 090015Z 34010KT 04/02 A3029 RMK A01 T00390020  RH  088%=      5-min Rain = 0
KWA1 090016Z 35010KT 04/02 A3029 RMK A01 T00380018  RH  087%=      5-min Rain = 0
KWA1 090017Z 35009KT 04/02 A3029 RMK A01 T00380018  RH  087%=      5-min Rain = 0
KWA1 090018Z 34010KT 04/02 A3029 RMK A01 T00380018  RH  087%=      5-min Rain = 0
KWA1 090019Z 34009KT 04/02 A3029 RMK A01 T00380018  RH  087%=      5-min Rain = 0
KWA1 090020Z 34009KT 04/02 A3029 RMK A01 T00380018  RH  087%=      5-min Rain = 0
KWA1 090021Z 34011KT 04/02 A3029 RMK A01 T00380017  RH  087%=      5-min Rain = 0
KWA1 090022Z 34010KT 04/02 A3029 RMK A01 T00370015  RH  086%=      5-min Rain = 0
KWA1 090023Z 34010KT 04/02 A3029 RMK A01 T00370016  RH  086%=      5-min Rain = 0
KWA1 090024Z 34009KT 04/02 A303 RMK A01 T00370017  RH  086%=      5-min Rain = 0
KWA1 090025Z 34009KT 04/02 A303 RMK A01 T00370017  RH  087%=      5-min Rain = 0
KWA1 090026Z 34008KT 04/02 A303 RMK A01 T00370017  RH  087%=      5-min Rain = 0
KWA1 090027Z 34008KT 04/02 A303 RMK A01 T00370018  RH  087%=      5-min Rain = 0
KWA1 090028Z 34009KT 04/02 A303 RMK A01 T00370017  RH  087%=      5-min Rain = 0
KWA1 090029Z 34008KT 04/02 A303 RMK A01 T00370016  RH  087%=      5-min Rain = 0
KWA1 090030Z 34007KT 04/02 A303 RMK A01 T00360017  RH  087%=      5-min Rain = 0
KWA1 090031Z 34008KT 04/02 A303 RMK A01 T00370017  RH  087%=      5-min Rain = 0
KWA1 090032Z 33008KT 04/02 A303 RMK A01 T00370017  RH  087%=      5-min Rain = 0
KWA1 090033Z 34008KT 04/02 A303 RMK A01 T00370016  RH  087%=      5-min Rain = 0
KWA1 090034Z 34009KT 04/02 A303 RMK A01 T00370016  RH  086%=      5-min Rain = 0
KWA1 090035Z 33009KT 04/02 A303 RMK A01 T00370016  RH  086%=      5-min Rain = 0
KWA1 090036Z 33007KT 04/02 A303 RMK A01 T00370016  RH  086%=      5-min Rain = 0
KWA1 090037Z 33008KT 04/02 A303 RMK A01 T00360016  RH  087%=      5-min Rain = 0
KWA1 090038Z 33008KT 04/02 A303 RMK A01 T00370016  RH  086%=      5-min Rain = 0
KWA1 090039Z 33007KT 04/02 A303 RMK A01 T00370015  RH  086%=      5-min Rain = 0
KWA1 090040Z 33008KT 04/02 A303 RMK A01 T00360015  RH  086%=      5-min Rain = 0
KWA1 090041Z 33007KT 04/02 A303 RMK A01 T00370015  RH  086%=      5-min Rain = 0
KWA1 090042Z 33008KT 04/01 A303 RMK A01 T00370014  RH  085%=      5-min Rain = 0
KWA1 090043Z 32007KT 04/01 A303 RMK A01 T00370014  RH  085%=      5-min Rain = 0
KWA1 090044Z 32006KT 04/02 A303 RMK A01 T00370015  RH  086%=      5-min Rain = 0
KWA1 090045Z 32007KT 04/02 A303 RMK A01 T00370016  RH  086%=      5-min Rain = 0
KWA1 090046Z 32007KT 04/02 A303 RMK A01 T00370016  RH  086%=      5-min Rain = 0
KWA1 090047Z 32007KT 04/02 A303 RMK A01 T00370016  RH  087%=      5-min Rain = 0
KWA1 090048Z 32007KT 04/02 A303 RMK A01 T00370016  RH  087%=      5-min Rain = 0
KWA1 090049Z 32006KT 04/02 A303 RMK A01 T00370016  RH  087%=      5-min Rain = 0
KWA1 090050Z 32006KT 04/02 A303 RMK A01 T00370017  RH  087%=      5-min Rain = 0
KWA1 090051Z 32006KT 04/02 A303 RMK A01 T00370017  RH  087%=      5-min Rain = 0
KWA1 090052Z 33006KT 04/02 A303 RMK A01 T00370017  RH  087%=      5-min Rain = 0
KWA1 090053Z 32006KT 04/02 A303 RMK A01 T00370017  RH  087%=      5-min Rain = 0
KWA1 090054Z 32007KT 04/02 A303 RMK A01 T00370017  RH  087%=      5-min Rain = 0
KWA1 090055Z 32006KT 04/02 A303 RMK A01 T00370016  RH  086%=      5-min Rain = 0
KWA1 090056Z 33006KT 04/02 A303 RMK A01 T00370017  RH  087%=      5-min Rain = 0
KWA1 090057Z 33006KT 04/02 A303 RMK A01 T00370017  RH  087%=      5-min Rain = 0
KWA1 090058Z 33007KT 04/02 A303 RMK A01 T00370017  RH  087%=      5-min Rain = 0
KWA1 090059Z 33007KT 04/02 A303 RMK A01 T00370017  RH  087%=      5-min Rain = 0
KWA1 090100Z 33006KT 04/02 A303 RMK A01 T00370017  RH  087%=      5-min Rain = 0
KWA1 090101Z 33009KT 04/02 A303 RMK A01 T00370018  RH  087%=      5-min Rain = 0
KWA1 090102Z 32008KT 04/02 A303 RMK A01 T00370017  RH  087%=      5-min Rain = 0
KWA1 090103Z 33008KT 04/02 A303 RMK A01 T00370015  RH  086%=      5-min Rain = 0
KWA1 090104Z 33007KT 04/02 A303 RMK A01 T00370016  RH  086%=      5-min Rain = 0
KWA1 090105Z 34006KT 04/02 A303 RMK A01 T00360015  RH  086%=      5-min Rain = 0
KWA1 090106Z 32006KT 04/02 A303 RMK A01 T00360015  RH  086%=      5-min Rain = 0
KWA1 090107Z 32007KT 04/02 A303 RMK A01 T00360017  RH  087%=      5-min Rain = 0
KWA1 090108Z 33007KT 04/02 A303 RMK A01 T00360016  RH  087%=      5-min Rain = 0
KWA1 090109Z 32005KT 04/02 A303 RMK A01 T00360016  RH  087%=      5-min Rain = 0
KWA1 090110Z 33005KT 04/02 A303 RMK A01 T00360017  RH  087%=      5-min Rain = 0
KWA1 090111Z 33008KT 04/02 A303 RMK A01 T00360017  RH  087%=      5-min Rain = 0
KWA1 090112Z 33008KT 04/02 A303 RMK A01 T00360015  RH  086%=      5-min Rain = 0
KWA1 090113Z 33007KT 04/01 A303 RMK A01 T00360014  RH  086%=      5-min Rain = 0
KWA1 090114Z 33006KT 04/02 A303 RMK A01 T00360015  RH  087%=      5-min Rain = 0
KWA1 090115Z 33007KT 04/02 A303 RMK A01 T00360016  RH  087%=      5-min Rain = 0
KWA1 090116Z 33006KT 04/02 A303 RMK A01 T00360016  RH  087%=      5-min Rain = 0
KWA1 090117Z 33006KT 04/02 A303 RMK A01 T00360016  RH  087%=      5-min Rain = 0
KWA1 090118Z 32006KT 04/02 A303 RMK A01 T00360016  RH  087%=      5-min Rain = 0
KWA1 090119Z 32006KT 04/02 A303 RMK A01 T00360017  RH  087%=      5-min Rain = 0
KWA1 090120Z 32005KT 04/02 A303 RMK A01 T00360016  RH  087%=      5-min Rain = 0
KWA1 090121Z 31003KT 04/02 A303 RMK A01 T00360016  RH  087%=      5-min Rain = 0
KWA1 090122Z 33005KT 04/02 A303 RMK A01 T00360017  RH  087%=      5-min Rain = 0
KWA1 090123Z 32005KT 04/02 A303 RMK A01 T00350015  RH  087%=      5-min Rain = 0
KWA1 090124Z 32006KT 04/02 A303 RMK A01 T00350016  RH  087%=      5-min Rain = 0
KWA1 090125Z 33007KT 04/02 A303 RMK A01 T00350016  RH  087%=      5-min Rain = 0
KWA1 090126Z 33007KT 04/02 A303 RMK A01 T00350015  RH  087%=      5-min Rain = 0
KWA1 090127Z 33007KT 03/01 A303 RMK A01 T00340014  RH  086%=      5-min Rain = 0
KWA1 090128Z 34008KT 03/01 A303 RMK A01 T00340014  RH  087%=      5-min Rain = 0
KWA1 090129Z 33008KT 03/01 A3031 RMK A01 T00340014  RH  087%=      5-min Rain = 0
KWA1 090130Z 33007KT 03/01 A3031 RMK A01 T00330013  RH  087%=      5-min Rain = 0
KWA1 090131Z 33007KT 03/01 A3031 RMK A01 T00330013  RH  087%=      5-min Rain = 0
KWA1 090132Z 34007KT 03/01 A3031 RMK A01 T00320013  RH  087%=      5-min Rain = 0
KWA1 090133Z 34007KT 03/01 A3031 RMK A01 T00320013  RH  087%=      5-min Rain = 0
KWA1 090134Z 34007KT 03/01 A3031 RMK A01 T00320013  RH  088%=      5-min Rain = 0
KWA1 090135Z 34007KT 03/01 A3031 RMK A01 T00320013  RH  088%=      5-min Rain = 0
KWA1 090136Z 34006KT 03/01 A3031 RMK A01 T00320013  RH  088%=      5-min Rain = 0
KWA1 090137Z 34007KT 03/01 A3031 RMK A01 T00310014  RH  088%=      5-min Rain = 0
KWA1 090138Z 34007KT 03/01 A3031 RMK A01 T00310014  RH  089%=      5-min Rain = 0
KWA1 090139Z 33007KT 03/01 A3031 RMK A01 T00310014  RH  089%=      5-min Rain = 0
KWA1 090140Z 33007KT 03/01 A3031 RMK A01 T00310014  RH  089%=      5-min Rain = 0
KWA1 090141Z 33007KT 03/01 A3031 RMK A01 T00310014  RH  089%=      5-min Rain = 0
KWA1 090142Z 33007KT 03/01 A3031 RMK A01 T00310014  RH  088%=      5-min Rain = 0
KWA1 090143Z 33007KT 03/01 A3031 RMK A01 T00310013  RH  088%=      5-min Rain = 0
KWA1 090144Z 33006KT 03/01 A3031 RMK A01 T00310014  RH  088%=      5-min Rain = 0
KWA1 090145Z 33006KT 03/01 A3031 RMK A01 T00310014  RH  088%=      5-min Rain = 0
KWA1 090146Z 33006KT 03/01 A3031 RMK A01 T00310014  RH  088%=      5-min Rain = 0
KWA1 090147Z 33006KT 03/01 A3031 RMK A01 T00320014  RH  088%=      5-min Rain = 0
KWA1 090148Z 33006KT 03/01 A3031 RMK A01 T00320014  RH  088%=      5-min Rain = 0
KWA1 090149Z 33006KT 03/01 A3031 RMK A01 T00320014  RH  089%=      5-min Rain = 0
KWA1 090150Z 34006KT 03/01 A3031 RMK A01 T00310014  RH  088%=      5-min Rain = 0
KWA1 090151Z 33005KT 03/01 A3032 RMK A01 T00320014  RH  088%=      5-min Rain = 0
KWA1 090152Z 33005KT 03/02 A3032 RMK A01 T00320015  RH  089%=      5-min Rain = 0
KWA1 090153Z 33005KT 03/02 A3032 RMK A01 T00320016  RH  089%=      5-min Rain = 0
KWA1 090154Z 32005KT 03/02 A3032 RMK A01 T00320016  RH  089%=      5-min Rain = 0
KWA1 090155Z 32005KT 03/02 A3032 RMK A01 T00320016  RH  089%=      5-min Rain = 0
KWA1 090156Z 32005KT 03/02 A3032 RMK A01 T00320017  RH  090%=      5-min Rain = 0
KWA1 090157Z 33004KT 03/02 A3032 RMK A01 T00320017  RH  090%=      5-min Rain = 0
KWA1 090158Z 33005KT 03/02 A3032 RMK A01 T00320018  RH  090%=      5-min Rain = 0
KWA1 090159Z 33005KT 03/02 A3032 RMK A01 T00320018  RH  090%=      5-min Rain = 0
KWA1 090200Z 33005KT 03/02 A3032 RMK A01 T00320018  RH  090%=      5-min Rain = 0
KWA1 090201Z 33005KT 03/02 A3032 RMK A01 T00320018  RH  090%=      5-min Rain = 0
KWA1 090202Z 34005KT 03/02 A3032 RMK A01 T00320018  RH  090%=      5-min Rain = 0
KWA1 090203Z 34005KT 03/02 A3032 RMK A01 T00320018  RH  091%=      5-min Rain = 0
KWA1 090204Z 34005KT 03/02 A3032 RMK A01 T00320018  RH  090%=      5-min Rain = 0
KWA1 090205Z 34005KT 03/02 A3032 RMK A01 T00320018  RH  091%=      5-min Rain = 0
KWA1 090206Z 34006KT 03/02 A3032 RMK A01 T00320017  RH  090%=      5-min Rain = 0
KWA1 090207Z 33006KT 03/02 A3032 RMK A01 T00320017  RH  090%=      5-min Rain = 0
KWA1 090208Z 33007KT 03/02 A3032 RMK A01 T00320017  RH  090%=      5-min Rain = 0
KWA1 090209Z 33007KT 03/02 A3032 RMK A01 T00320016  RH  090%=      5-min Rain = 0
KWA1 090210Z 33007KT 03/02 A3032 RMK A01 T00320015  RH  089%=      5-min Rain = 0
KWA1 090211Z 33007KT 03/02 A3032 RMK A01 T00320016  RH  089%=      5-min Rain = 0
KWA1 090212Z 33007KT 03/02 A3032 RMK A01 T00320016  RH  089%=      5-min Rain = 0
KWA1 090213Z 33007KT 03/02 A3032 RMK A01 T00320016  RH  089%=      5-min Rain = 0
KWA1 090214Z 33007KT 03/02 A3032 RMK A01 T00320016  RH  089%=      5-min Rain = 0
KWA1 090215Z 33007KT 03/02 A3032 RMK A01 T00320016  RH  090%=      5-min Rain = 0
KWA1 090216Z 34007KT 03/02 A3032 RMK A01 T00320016  RH  090%=      5-min Rain = 0
KWA1 090217Z 33008KT 03/02 A3032 RMK A01 T00310016  RH  090%=      5-min Rain = 0
KWA1 090218Z 33008KT 03/02 A3032 RMK A01 T00310015  RH  089%=      5-min Rain = 0
KWA1 090219Z 33008KT 03/02 A3032 RMK A01 T00310015  RH  089%=      5-min Rain = 0
KWA1 090220Z 34010KT 03/01 A3032 RMK A01 T00310014  RH  089%=      5-min Rain = 0
KWA1 090221Z 35010KT 03/01 A3032 RMK A01 T00310014  RH  088%=      5-min Rain = 0
KWA1 090222Z 35010KT 03/01 A3032 RMK A01 T00310013  RH  088%=      5-min Rain = 0
KWA1 090223Z 34009KT 03/01 A3032 RMK A01 T00310013  RH  088%=      5-min Rain = 0
KWA1 090224Z 33007KT 03/01 A3032 RMK A01 T00320014  RH  088%=      5-min Rain = 0
KWA1 090225Z 34009KT 03/02 A3032 RMK A01 T00320015  RH  089%=      5-min Rain = 0
KWA1 090226Z 34009KT 03/01 A3032 RMK A01 T00320013  RH  088%=      5-min Rain = 0
KWA1 090227Z 34007KT 03/01 A3032 RMK A01 T00320014  RH  088%=      5-min Rain = 0
KWA1 090228Z 34010KT 03/01 A3032 RMK A01 T00320014  RH  088%=      5-min Rain = 0
KWA1 090229Z 34009KT 03/01 A3032 RMK A01 T00310012  RH  087%=      5-min Rain = 0
KWA1 090230Z 34008KT 03/01 A3032 RMK A01 T00310012  RH  088%=      5-min Rain = 0
KWA1 090231Z 34007KT 03/01 A3032 RMK A01 T00310013  RH  088%=      5-min Rain = 0
KWA1 090232Z 33008KT 03/01 A3032 RMK A01 T00310013  RH  088%=      5-min Rain = 0
KWA1 090233Z 33009KT 03/01 A3032 RMK A01 T00310013  RH  088%=      5-min Rain = 0
KWA1 090234Z 34009KT 03/01 A3032 RMK A01 T00310012  RH  087%=      5-min Rain = 0
KWA1 090235Z 34008KT 03/01 A3032 RMK A01 T00310011  RH  087%=      5-min Rain = 0
KWA1 090236Z 35010KT 03/01 A3032 RMK A01 T00310011  RH  087%=      5-min Rain = 0
KWA1 090237Z 34009KT 03/01 A3032 RMK A01 T00310010  RH  086%=      5-min Rain = 0
KWA1 090238Z 34008KT 03/01 A3033 RMK A01 T00310010  RH  086%=      5-min Rain = 0
KWA1 090239Z 34008KT 03/01 A3033 RMK A01 T00310011  RH  087%=      5-min Rain = 0
KWA1 090240Z 33007KT 03/01 A3033 RMK A01 T00300010  RH  087%=      5-min Rain = 0
KWA1 090241Z 33006KT 03/01 A3033 RMK A01 T00300011  RH  087%=      5-min Rain = 0
KWA1 090242Z 33007KT 03/01 A3033 RMK A01 T00300012  RH  087%=      5-min Rain = 0
KWA1 090243Z 33009KT 03/01 A3033 RMK A01 T00300011  RH  087%=      5-min Rain = 0
KWA1 090244Z 34007KT 03/01 A3033 RMK A01 T00300010  RH  087%=      5-min Rain = 0
KWA1 090245Z 34007KT 03/01 A3033 RMK A01 T00300011  RH  087%=      5-min Rain = 0
KWA1 090246Z 34007KT 03/01 A3033 RMK A01 T00300011  RH  087%=      5-min Rain = 0
KWA1 090247Z 33006KT 03/01 A3033 RMK A01 T00300010  RH  087%=      5-min Rain = 0
KWA1 090248Z 32007KT 03/01 A3033 RMK A01 T00300011  RH  088%=      5-min Rain = 0
KWA1 090249Z 33007KT 03/01 A3033 RMK A01 T00300011  RH  088%=      5-min Rain = 0
KWA1 090250Z 33008KT 03/01 A3033 RMK A01 T00300010  RH  087%=      5-min Rain = 0
KWA1 090251Z 33007KT 03/01 A3033 RMK A01 T00300010  RH  087%=      5-min Rain = 0
KWA1 090252Z 32006KT 03/01 A3033 RMK A01 T00300010  RH  087%=      5-min Rain = 0
KWA1 090253Z 32006KT 03/01 A3033 RMK A01 T00300010  RH  087%=      5-min Rain = 0
KWA1 090254Z 32007KT 03/01 A3033 RMK A01 T00300010  RH  087%=      5-min Rain = 0
KWA1 090255Z 32007KT 03/01 A3033 RMK A01 T00300010  RH  087%=      5-min Rain = 0
KWA1 090256Z 32007KT 03/01 A3033 RMK A01 T00300010  RH  087%=      5-min Rain = 0
KWA1 090257Z 33007KT 03/01 A3033 RMK A01 T00300010  RH  087%=      5-min Rain = 0
KWA1 090258Z 33006KT 03/01 A3033 RMK A01 T00300010  RH  087%=      5-min Rain = 0
KWA1 090259Z 34007KT 03/01 A3033 RMK A01 T00300011  RH  087%=      5-min Rain = 0
KWA1 090300Z 34008KT 03/01 A3033 RMK A01 T00300010  RH  087%=      5-min Rain = 0
KWA1 090301Z 34008KT 03/01 A3033 RMK A01 T00290009  RH  086%=      5-min Rain = 0
KWA1 090302Z 33007KT 03/01 A3033 RMK A01 T00300009  RH  086%=      5-min Rain = 0
KWA1 090303Z 33006KT 03/01 A3033 RMK A01 T00290009  RH  086%=      5-min Rain = 0
KWA1 090304Z 33007KT 03/01 A3033 RMK A01 T00300010  RH  087%=      5-min Rain = 0
KWA1 090305Z 33006KT 03/01 A3033 RMK A01 T00300009  RH  087%=      5-min Rain = 0
KWA1 090306Z 33006KT 03/01 A3033 RMK A01 T00290010  RH  087%=      5-min Rain = 0
KWA1 090307Z 32006KT 03/01 A3033 RMK A01 T00290010  RH  087%=      5-min Rain = 0
KWA1 090308Z 31006KT 03/01 A3033 RMK A01 T00290011  RH  088%=      5-min Rain = 0
KWA1 090309Z 32009KT 03/01 A3033 RMK A01 T00290011  RH  088%=      5-min Rain = 0
KWA1 090310Z 33007KT 03/01 A3033 RMK A01 T00290010  RH  087%=      5-min Rain = 0
KWA1 090311Z 33007KT 03/01 A3033 RMK A01 T00290010  RH  087%=      5-min Rain = 0
KWA1 090312Z 32006KT 03/01 A3033 RMK A01 T00290010  RH  087%=      5-min Rain = 0
KWA1 090313Z 31006KT 03/01 A3033 RMK A01 T00300011  RH  088%=      5-min Rain = 0
KWA1 090314Z 31006KT 03/01 A3033 RMK A01 T00300011  RH  088%=      5-min Rain = 0
KWA1 090315Z 30005KT 03/01 A3034 RMK A01 T00300011  RH  087%=      5-min Rain = 0
KWA1 090316Z 32005KT 03/01 A3034 RMK A01 T00300012  RH  088%=      5-min Rain = 0
KWA1 090317Z 31004KT 03/01 A3034 RMK A01 T00300012  RH  088%=      5-min Rain = 0
KWA1 090318Z 32006KT 03/01 A3033 RMK A01 T00300011  RH  087%=      5-min Rain = 0
KWA1 090319Z 32005KT 03/01 A3033 RMK A01 T00300010  RH  087%=      5-min Rain = 0
KWA1 090320Z 31006KT 03/01 A3033 RMK A01 T00300010  RH  087%=      5-min Rain = 0
KWA1 090321Z 31005KT 03/01 A3033 RMK A01 T00300010  RH  087%=      5-min Rain = 0
KWA1 090322Z 31004KT 03/01 A3033 RMK A01 T00300010  RH  087%=      5-min Rain = 0
KWA1 090323Z 32004KT 03/01 A3033 RMK A01 T00300010  RH  087%=      5-min Rain = 0
KWA1 090324Z 32004KT 03/01 A3033 RMK A01 T00290010  RH  087%=      5-min Rain = 0
KWA1 090325Z 32003KT 03/01 A3033 RMK A01 T00290010  RH  087%=      5-min Rain = 0
KWA1 090326Z 32003KT 03/01 A3033 RMK A01 T00290010  RH  088%=      5-min Rain = 0
KWA1 090327Z 32003KT 03/01 A3033 RMK A01 T00290010  RH  088%=      5-min Rain = 0
KWA1 090328Z 32003KT 03/01 A3033 RMK A01 T00290010  RH  087%=      5-min Rain = 0
KWA1 090329Z 31004KT 03/01 A3034 RMK A01 T00290010  RH  088%=      5-min Rain = 0
KWA1 090330Z 30004KT 03/01 A3034 RMK A01 T00280010  RH  088%=      5-min Rain = 0
KWA1 090331Z 31004KT 03/01 A3034 RMK A01 T00290010  RH  088%=      5-min Rain = 0
KWA1 090332Z 31004KT 03/01 A3034 RMK A01 T00280009  RH  087%=      5-min Rain = 0
KWA1 090333Z 31004KT 03/01 A3034 RMK A01 T00280009  RH  087%=      5-min Rain = 0
KWA1 090334Z 31005KT 03/01 A3034 RMK A01 T00280010  RH  088%=      5-min Rain = 0
KWA1 090335Z 31004KT 03/01 A3034 RMK A01 T00280010  RH  088%=      5-min Rain = 0
KWA1 090336Z 31005KT 03/01 A3034 RMK A01 T00280011  RH  088%=      5-min Rain = 0
KWA1 090337Z 31004KT 03/01 A3034 RMK A01 T00280011  RH  089%=      5-min Rain = 0
KWA1 090338Z 31005KT 03/01 A3034 RMK A01 T00280011  RH  089%=      5-min Rain = 0
KWA1 090339Z 31005KT 03/01 A3034 RMK A01 T00280011  RH  089%=      5-min Rain = 0
KWA1 090340Z 30004KT 03/01 A3034 RMK A01 T00280011  RH  089%=      5-min Rain = 0
KWA1 090341Z 31004KT 03/01 A3034 RMK A01 T00270011  RH  089%=      5-min Rain = 0
KWA1 090342Z 30004KT 03/01 A3034 RMK A01 T00270011  RH  089%=      5-min Rain = 0
KWA1 090343Z 30004KT 03/01 A3033 RMK A01 T00270011  RH  089%=      5-min Rain = 0
KWA1 090344Z 30004KT 03/01 A3033 RMK A01 T00260011  RH  090%=      5-min Rain = 0
KWA1 090345Z 31004KT 03/01 A3033 RMK A01 T00260011  RH  090%=      5-min Rain = 0
KWA1 090346Z 30004KT 03/01 A3033 RMK A01 T00260011  RH  090%=      5-min Rain = 0
KWA1 090347Z 30004KT 03/01 A3033 RMK A01 T00260011  RH  090%=      5-min Rain = 0
KWA1 090348Z 30004KT 03/01 A3033 RMK A01 T00250011  RH  090%=      5-min Rain = 0
KWA1 090349Z 30004KT 03/01 A3033 RMK A01 T00250011  RH  090%=      5-min Rain = 0
KWA1 090350Z 30004KT 03/01 A3033 RMK A01 T00250010  RH  090%=      5-min Rain = 0
KWA1 090351Z 30004KT 02/01 A3033 RMK A01 T00240011  RH  091%=      5-min Rain = 0
KWA1 090352Z 30004KT 02/01 A3033 RMK A01 T00240011  RH  091%=      5-min Rain = 0
KWA1 090353Z 30004KT 02/01 A3033 RMK A01 T00230010  RH  091%=      5-min Rain = 0
KWA1 090354Z 30004KT 02/01 A3033 RMK A01 T00230010  RH  091%=      5-min Rain = 0
KWA1 090355Z 30004KT 02/01 A3033 RMK A01 T00230010  RH  091%=      5-min Rain = 0
KWA1 090356Z 30004KT 02/01 A3034 RMK A01 T00230010  RH  092%=      5-min Rain = 0
KWA1 090357Z 30005KT 02/01 A3034 RMK A01 T00220010  RH  092%=      5-min Rain = 0
KWA1 090358Z 30004KT 02/01 A3034 RMK A01 T00220010  RH  092%=      5-min Rain = 0
KWA1 090359Z 30004KT 02/01 A3034 RMK A01 T00220010  RH  092%=      5-min Rain = 0
KWA1 090400Z 30004KT 02/01 A3034 RMK A01 T00210010  RH  092%=      5-min Rain = 0
KWA1 090401Z 30004KT 02/01 A3034 RMK A01 T00210010  RH  092%=      5-min Rain = 0
KWA1 090402Z 30005KT 02/01 A3034 RMK A01 T00210010  RH  092%=      5-min Rain = 0
KWA1 090403Z 30004KT 02/01 A3034 RMK A01 T00210010  RH  092%=      5-min Rain = 0
KWA1 090404Z 30004KT 02/01 A3034 RMK A01 T00200010  RH  092%=      5-min Rain = 0
KWA1 090405Z 30005KT 02/01 A3034 RMK A01 T00200010  RH  093%=      5-min Rain = 0
KWA1 090406Z 30004KT 02/01 A3034 RMK A01 T00200010  RH  093%=      5-min Rain = 0
KWA1 090407Z 30004KT 02/01 A3034 RMK A01 T00200010  RH  093%=      5-min Rain = 0
KWA1 090408Z 30005KT 02/01 A3034 RMK A01 T00200010  RH  093%=      5-min Rain = 0
KWA1 090409Z 29005KT 02/01 A3034 RMK A01 T00200010  RH  093%=      5-min Rain = 0
KWA1 090410Z 29005KT 02/01 A3034 RMK A01 T00200010  RH  093%=      5-min Rain = 0
KWA1 090411Z 29005KT 02/01 A3034 RMK A01 T00210011  RH  093%=      5-min Rain = 0
KWA1 090412Z 29005KT 02/01 A3034 RMK A01 T00210011  RH  093%=      5-min Rain = 0
KWA1 090413Z 29004KT 02/01 A3034 RMK A01 T00210011  RH  093%=      5-min Rain = 0
KWA1 090414Z 29004KT 02/01 A3034 RMK A01 T00210011  RH  093%=      5-min Rain = 0
KWA1 090415Z 29004KT 02/01 A3034 RMK A01 T00220011  RH  093%=      5-min Rain = 0
KWA1 090416Z 30004KT 02/01 A3034 RMK A01 T00220011  RH  093%=      5-min Rain = 0
KWA1 090417Z 30004KT 02/01 A3034 RMK A01 T00220012  RH  093%=      5-min Rain = 0
KWA1 090418Z 30004KT 02/01 A3034 RMK A01 T00220012  RH  093%=      5-min Rain = 0
KWA1 090419Z 30004KT 02/01 A3034 RMK A01 T00220012  RH  093%=      5-min Rain = 0
KWA1 090420Z 30003KT 02/01 A3034 RMK A01 T00220011  RH  093%=      5-min Rain = 0
KWA1 090421Z 29003KT 02/01 A3034 RMK A01 T00220012  RH  093%=      5-min Rain = 0
KWA1 090422Z 30003KT 02/01 A3034 RMK A01 T00220011  RH  093%=      5-min Rain = 0
KWA1 090423Z 30003KT 02/01 A3034 RMK A01 T00230012  RH  093%=      5-min Rain = 0
KWA1 090424Z 30003KT 02/01 A3034 RMK A01 T00230012  RH  093%=      5-min Rain = 0
KWA1 090425Z 30003KT 02/01 A3034 RMK A01 T00230012  RH  093%=      5-min Rain = 0
KWA1 090426Z 30003KT 02/01 A3034 RMK A01 T00230012  RH  093%=      5-min Rain = 0
KWA1 090427Z 30003KT 02/01 A3034 RMK A01 T00230012  RH  093%=      5-min Rain = 0
KWA1 090428Z 30004KT 02/01 A3034 RMK A01 T00230012  RH  093%=      5-min Rain = 0
KWA1 090429Z 30004KT 02/01 A3034 RMK A01 T00230012  RH  092%=      5-min Rain = 0
KWA1 090430Z 30003KT 02/01 A3034 RMK A01 T00230012  RH  092%=      5-min Rain = 0
KWA1 090431Z 30003KT 02/01 A3034 RMK A01 T00230012  RH  092%=      5-min Rain = 0
KWA1 090432Z 30003KT 02/01 A3034 RMK A01 T00230012  RH  092%=      5-min Rain = 0
KWA1 090433Z 30003KT 02/01 A3034 RMK A01 T00230012  RH  092%=      5-min Rain = 0
KWA1 090434Z 31003KT 02/01 A3034 RMK A01 T00220011  RH  092%=      5-min Rain = 0
KWA1 090435Z 31003KT 02/01 A3034 RMK A01 T00220011  RH  092%=      5-min Rain = 0
KWA1 090436Z 31004KT 02/01 A3034 RMK A01 T00220011  RH  092%=      5-min Rain = 0
KWA1 090437Z 31003KT 02/01 A3034 RMK A01 T00220011  RH  092%=      5-min Rain = 0
KWA1 090438Z 30003KT 02/01 A3034 RMK A01 T00220010  RH  092%=      5-min Rain = 0
KWA1 090439Z 30003KT 02/01 A3034 RMK A01 T00220011  RH  092%=      5-min Rain = 0
KWA1 090440Z 30003KT 02/01 A3034 RMK A01 T00210010  RH  092%=      5-min Rain = 0
KWA1 090441Z 30003KT 02/01 A3034 RMK A01 T00210010  RH  093%=      5-min Rain = 0
KWA1 090442Z 30003KT 02/01 A3034 RMK A01 T00210010  RH  093%=      5-min Rain = 0
KWA1 090443Z 30004KT 02/01 A3034 RMK A01 T00210010  RH  093%=      5-min Rain = 0
KWA1 090444Z 30003KT 02/01 A3034 RMK A01 T00200009  RH  093%=      5-min Rain = 0
KWA1 090445Z 30003KT 02/01 A3034 RMK A01 T00200009  RH  093%=      5-min Rain = 0
KWA1 090446Z 30003KT 02/01 A3034 RMK A01 T00200009  RH  093%=      5-min Rain = 0
KWA1 090447Z 30003KT 02/01 A3034 RMK A01 T00200009  RH  093%=      5-min Rain = 0
KWA1 090448Z 30003KT 02/01 A3034 RMK A01 T00190009  RH  093%=      5-min Rain = 0
KWA1 090449Z 30003KT 02/01 A3034 RMK A01 T00190009  RH  093%=      5-min Rain = 0
KWA1 090450Z 30003KT 02/01 A3034 RMK A01 T00180008  RH  093%=      5-min Rain = 0
KWA1 090451Z 30003KT 02/01 A3034 RMK A01 T00180008  RH  093%=      5-min Rain = 0
KWA1 090452Z 30003KT 02/01 A3034 RMK A01 T00180008  RH  093%=      5-min Rain = 0
KWA1 090453Z 30002KT 02/01 A3034 RMK A01 T00180008  RH  093%=      5-min Rain = 0
KWA1 090454Z 30002KT 02/01 A3034 RMK A01 T00180008  RH  093%=      5-min Rain = 0
KWA1 090455Z 30002KT 02/01 A3034 RMK A01 T00170008  RH  093%=      5-min Rain = 0
KWA1 090456Z 31002KT 02/01 A3034 RMK A01 T00180008  RH  094%=      5-min Rain = 0
KWA1 090457Z 31002KT 02/01 A3034 RMK A01 T00170008  RH  094%=      5-min Rain = 0
KWA1 090458Z 31002KT 02/01 A3034 RMK A01 T00170007  RH  094%=      5-min Rain = 0
KWA1 090459Z 31002KT 02/01 A3034 RMK A01 T00160007  RH  093%=      5-min Rain = 0
KWA1 090500Z 30002KT 02/01 A3034 RMK A01 T00160007  RH  094%=      5-min Rain = 0
KWA1 090501Z 29002KT 02/01 A3034 RMK A01 T00160007  RH  094%=      5-min Rain = 0
KWA1 090502Z 29002KT 02/01 A3034 RMK A01 T00160007  RH  094%=      5-min Rain = 0
KWA1 090503Z 29002KT 02/01 A3034 RMK A01 T00160007  RH  094%=      5-min Rain = 0
KWA1 090504Z 29002KT 02/01 A3034 RMK A01 T00160007  RH  094%=      5-min Rain = 0
KWA1 090505Z 28002KT 02/01 A3034 RMK A01 T00160007  RH  094%=      5-min Rain = 0
KWA1 090506Z 28002KT 02/01 A3034 RMK A01 T00160007  RH  094%=      5-min Rain = 0
KWA1 090507Z 28002KT 02/01 A3034 RMK A01 T00160007  RH  094%=      5-min Rain = 0
KWA1 090508Z 28002KT 02/01 A3034 RMK A01 T00160008  RH  094%=      5-min Rain = 0
KWA1 090509Z 29002KT 02/01 A3034 RMK A01 T00160007  RH  094%=      5-min Rain = 0
KWA1 090510Z 29002KT 02/01 A3034 RMK A01 T00160007  RH  094%=      5-min Rain = 0
KWA1 090511Z 29002KT 02/01 A3034 RMK A01 T00150007  RH  094%=      5-min Rain = 0
KWA1 090512Z 29002KT 02/01 A3034 RMK A01 T00150007  RH  094%=      5-min Rain = 0
KWA1 090513Z 29003KT 02/01 A3034 RMK A01 T00150007  RH  094%=      5-min Rain = 0
KWA1 090514Z 30002KT 02/01 A3034 RMK A01 T00150007  RH  094%=      5-min Rain = 0
KWA1 090515Z 30002KT 02/01 A3034 RMK A01 T00150007  RH  095%=      5-min Rain = 0
KWA1 090516Z 30002KT 01/01 A3034 RMK A01 T00140007  RH  095%=      5-min Rain = 0
KWA1 090517Z 30001KT 01/01 A3034 RMK A01 T00140006  RH  095%=      5-min Rain = 0
KWA1 090518Z 29001KT 01/01 A3034 RMK A01 T00130006  RH  095%=      5-min Rain = 0
KWA1 090519Z 30001KT 01/01 A3034 RMK A01 T00130006  RH  095%=      5-min Rain = 0
KWA1 090520Z 30001KT 01/01 A3034 RMK A01 T00130005  RH  095%=      5-min Rain = 0
KWA1 090521Z 30001KT 01/01 A3034 RMK A01 T00130006  RH  095%=      5-min Rain = 0
KWA1 090522Z 30001KT 01/01 A3034 RMK A01 T00120005  RH  095%=      5-min Rain = 0
KWA1 090523Z 00000KT 01/01 A3034 RMK A01 T00120005  RH  095%=      5-min Rain = 0
KWA1 090524Z 00000KT 01/01 A3034 RMK A01 T00120005  RH  095%=      5-min Rain = 0
KWA1 090525Z 00000KT 01/01 A3034 RMK A01 T00120005  RH  095%=      5-min Rain = 0
KWA1 090526Z 00000KT 01/01 A3034 RMK A01 T00120005  RH  095%=      5-min Rain = 0
KWA1 090527Z 00000KT 01/01 A3034 RMK A01 T00120005  RH  095%=      5-min Rain = 0
KWA1 090528Z 00000KT 01/01 A3034 RMK A01 T00120005  RH  095%=      5-min Rain = 0
KWA1 090529Z 00000KT 01/01 A3034 RMK A01 T00110005  RH  095%=      5-min Rain = 0
KWA1 090530Z 00000KT 01/00 A3034 RMK A01 T00110004  RH  095%=      5-min Rain = 0
KWA1 090531Z 00000KT 01/00 A3034 RMK A01 T00100004  RH  095%=      5-min Rain = 0
KWA1 090532Z 00000KT 01/00 A3034 RMK A01 T00100004  RH  095%=      5-min Rain = 0
KWA1 090533Z 00000KT 01/00 A3034 RMK A01 T00100004  RH  095%=      5-min Rain = 0
KWA1 090534Z 00000KT 01/00 A3034 RMK A01 T00100004  RH  095%=      5-min Rain = 0
KWA1 090535Z 00000KT 01/00 A3034 RMK A01 T00100003  RH  095%=      5-min Rain = 0
KWA1 090536Z 00000KT 01/00 A3034 RMK A01 T00090003  RH  096%=      5-min Rain = 0
KWA1 090537Z 00000KT 01/00 A3034 RMK A01 T00090003  RH  096%=      5-min Rain = 0
KWA1 090538Z 00000KT 01/00 A3034 RMK A01 T00090003  RH  096%=      5-min Rain = 0
KWA1 090539Z 00000KT 01/00 A3034 RMK A01 T00090003  RH  096%=      5-min Rain = 0
KWA1 090540Z 00000KT 01/00 A3034 RMK A01 T00090003  RH  096%=      5-min Rain = 0
KWA1 090541Z 00000KT 01/00 A3034 RMK A01 T00090004  RH  096%=      5-min Rain = 0
KWA1 090542Z 00000KT 01/00 A3034 RMK A01 T00090004  RH  096%=      5-min Rain = 0
KWA1 090543Z 00000KT 01/00 A3034 RMK A01 T00090004  RH  096%=      5-min Rain = 0
KWA1 090544Z 33000KT 01/00 A3034 RMK A01 T00100004  RH  096%=      5-min Rain = 0
KWA1 090545Z 33000KT 01/01 A3034 RMK A01 T00100005  RH  096%=      5-min Rain = 0
KWA1 090546Z 33000KT 01/01 A3034 RMK A01 T00100005  RH  096%=      5-min Rain = 0
KWA1 090547Z 31001KT 01/01 A3034 RMK A01 T00110005  RH  096%=      5-min Rain = 0
KWA1 090548Z 30001KT 01/01 A3034 RMK A01 T00110006  RH  096%=      5-min Rain = 0
KWA1 090549Z 30001KT 01/01 A3034 RMK A01 T00110005  RH  096%=      5-min Rain = 0
KWA1 090550Z 30001KT 01/01 A3034 RMK A01 T00110005  RH  096%=      5-min Rain = 0
KWA1 090551Z 29001KT 01/01 A3034 RMK A01 T00110005  RH  096%=      5-min Rain = 0
KWA1 090552Z 29001KT 01/01 A3034 RMK A01 T00110006  RH  096%=      5-min Rain = 0
KWA1 090553Z 30001KT 01/01 A3034 RMK A01 T00110006  RH  096%=      5-min Rain = 0
KWA1 090554Z 30001KT 01/01 A3034 RMK A01 T00110006  RH  096%=      5-min Rain = 0
KWA1 090555Z 30000KT 01/01 A3034 RMK A01 T00110006  RH  096%=      5-min Rain = 0
KWA1 090556Z 00000KT 01/01 A3033 RMK A01 T00110006  RH  096%=      5-min Rain = 0
KWA1 090557Z 30000KT 01/01 A3033 RMK A01 T00100005  RH  096%=      5-min Rain = 0
KWA1 090558Z 32001KT 01/00 A3033 RMK A01 T00090003  RH  096%=      5-min Rain = 0
KWA1 090559Z 08001KT 01/00 A3033 RMK A01 T00080002  RH  096%=      5-min Rain = 0

Page generated in 0.1301 seconds.